Wetterdaten: Dienstag, 13.02.2018
Datum Zeit Temp. Aussen Temp. o. S. +5cm Feuchte Auss BlattFeu 1 Luftdruck Regen Sonnenschein Regendauer Solar Windben Empfang
13.02.2018 00:00 -0,1 C -0,6 C -3,3 C 86 % 0 lf 1015,0 hPa 0,0 l/m 0 min 0 min 0 W/m 6,8 km/h (2 Bft) 93,62 %
13.02.2018 00:02 -0,1 C -0,6 C -2,8 C 86 % 0 lf 1015,0 hPa 0,0 l/m 0 min 0 min 0 W/m 9,0 km/h (2 Bft) 93,02 %
13.02.2018 00:04 -0,2 C -0,6 C -2,8 C 86 % 0 lf 1015,0 hPa 0,0 l/m 0 min 0 min 0 W/m 11,3 km/h (2 Bft) 91,30 %
13.02.2018 00:07 -0,2 C -0,6 C -3,3 C 86 % 0 lf 1015,0 hPa 0,0 l/m 0 min 0 min 0 W/m 9,0 km/h (2 Bft) 93,06 %
13.02.2018 00:08 -0,2 C -0,6 C -3,3 C 86 % 0 lf 1015,0 hPa 0,0 l/m 0 min 0 min 0 W/m 6,8 km/h (2 Bft) 91,30 %
13.02.2018 00:10 -0,2 C -0,6 C -3,3 C 86 % 0 lf 1015,0 hPa 0,0 l/m 0 min 0 min 0 W/m 9,0 km/h (2 Bft) 95,74 %
13.02.2018 00:12 -0,2 C -1,1 C -3,3 C 86 % 0 lf 1015,0 hPa 0,0 l/m 0 min 0 min 0 W/m 6,8 km/h (2 Bft) 95,74 %
13.02.2018 00:14 -0,2 C -1,1 C -3,3 C 86 % 0 lf 1015,0 hPa 0,0 l/m 0 min 0 min 0 W/m 9,0 km/h (2 Bft) 97,83 %
13.02.2018 00:16 -0,3 C -1,1 C -3,3 C 86 % 0 lf 1015,0 hPa 0,0 l/m 0 min 0 min 0 W/m 9,0 km/h (2 Bft) 97,87 %
13.02.2018 00:18 -0,3 C -1,1 C -3,3 C 86 % 0 lf 1015,1 hPa 0,0 l/m 0 min 0 min 0 W/m 6,8 km/h (2 Bft) 95,74 %
13.02.2018 00:20 -0,3 C -1,1 C -3,3 C 86 % 0 lf 1015,0 hPa 0,0 l/m 0 min 0 min 0 W/m 6,8 km/h (2 Bft) 97,87 %
13.02.2018 00:22 -0,3 C -1,1 C -3,3 C 86 % 0 lf 1015,1 hPa 0,0 l/m 0 min 0 min 0 W/m 9,0 km/h (2 Bft) 97,87 %
13.02.2018 00:24 -0,3 C -1,1 C -3,3 C 87 % 0 lf 1015,0 hPa 0,0 l/m 0 min 0 min 0 W/m 4,5 km/h (1 Bft) 100,00 %
13.02.2018 00:26 -0,3 C -1,1 C -3,3 C 87 % 0 lf 1015,0 hPa 0,0 l/m 0 min 0 min 0 W/m 6,8 km/h (2 Bft) 97,83 %
13.02.2018 00:28 -0,4 C -1,1 C -3,3 C 87 % 0 lf 1015,0 hPa 0,0 l/m 0 min 0 min 0 W/m 6,8 km/h (2 Bft) 97,87 %
13.02.2018 00:30 -0,4 C -1,1 C -3,3 C 87 % 0 lf 1015,0 hPa 0,0 l/m 0 min 0 min 0 W/m 6,8 km/h (2 Bft) 97,87 %
13.02.2018 00:32 -0,4 C -1,1 C -3,3 C 86 % 0 lf 1015,1 hPa 0,0 l/m 0 min 0 min 0 W/m 6,8 km/h (2 Bft) 100,00 %
13.02.2018 00:34 -0,4 C -1,1 C -3,3 C 87 % 0 lf 1014,9 hPa 0,0 l/m 0 min 0 min 0 W/m 6,8 km/h (2 Bft) 100,00 %
13.02.2018 00:36 -0,4 C -1,1 C -3,3 C 87 % 0 lf 1014,9 hPa 0,0 l/m 0 min 0 min 0 W/m 9,0 km/h (2 Bft) 97,87 %
13.02.2018 00:38 -0,4 C -1,1 C -3,3 C 87 % 0 lf 1014,9 hPa 0,0 l/m 0 min 0 min 0 W/m 9,0 km/h (2 Bft) 100,00 %
13.02.2018 00:40 -0,5 C -1,1 C -3,3 C 87 % 0 lf 1015,0 hPa 0,0 l/m 0 min 0 min 0 W/m 9,0 km/h (2 Bft) 100,00 %
13.02.2018 00:42 -0,5 C -1,1 C -3,9 C 87 % 0 lf 1014,9 hPa 0,0 l/m 0 min 0 min 0 W/m 6,8 km/h (2 Bft) 100,00 %
13.02.2018 00:44 -0,5 C -1,1 C -3,9 C 87 % 0 lf 1014,9 hPa 0,0 l/m 0 min 0 min 0 W/m 4,5 km/h (1 Bft) 100,00 %
13.02.2018 00:46 -0,6 C -1,1 C -3,9 C 87 % 0 lf 1014,9 hPa 0,0 l/m 0 min 0 min 0 W/m 6,8 km/h (2 Bft) 100,00 %
13.02.2018 00:48 -0,6 C -1,1 C -3,9 C 87 % 0 lf 1014,9 hPa 0,0 l/m 0 min 0 min 0 W/m 6,8 km/h (2 Bft) 95,74 %
13.02.2018 00:50 -0,6 C -1,1 C -3,9 C 87 % 0 lf 1014,9 hPa 0,0 l/m 0 min 0 min 0 W/m 6,8 km/h (2 Bft) 100,00 %
13.02.2018 00:52 -0,6 C -1,1 C -3,9 C 87 % 0 lf 1014,9 hPa 0,0 l/m 0 min 0 min 0 W/m 6,8 km/h (2 Bft) 100,00 %
13.02.2018 00:54 -0,6 C -1,1 C -3,9 C 87 % 0 lf 1014,8 hPa 0,0 l/m 0 min 0 min 0 W/m 6,8 km/h (2 Bft) 100,00 %
13.02.2018 00:56 -0,6 C -1,1 C -3,9 C 87 % 0 lf 1014,9 hPa 0,0 l/m 0 min 0 min 0 W/m 6,8 km/h (2 Bft) 100,00 %
13.02.2018 00:58 -0,7 C -1,1 C -3,9 C 87 % 0 lf 1014,8 hPa 0,0 l/m 0 min 0 min 0 W/m 9,0 km/h (2 Bft) 100,00 %
13.02.2018 01:00 -0,7 C -1,1 C -3,9 C 87 % 0 lf 1014,9 hPa 0,0 l/m 0 min 0 min 0 W/m 9,0 km/h (2 Bft) 97,87 %
13.02.2018 01:02 -0,7 C -1,1 C -3,9 C 87 % 0 lf 1014,9 hPa 0,0 l/m 0 min 0 min 0 W/m 9,0 km/h (2 Bft) 97,83 %
13.02.2018 01:04 -0,7 C -1,1 C -3,9 C 87 % 0 lf 1014,9 hPa 0,0 l/m 0 min 0 min 0 W/m 9,0 km/h (2 Bft) 97,87 %
13.02.2018 01:06 -0,7 C -1,1 C -3,9 C 87 % 0 lf 1014,9 hPa 0,0 l/m 0 min 0 min 0 W/m 9,0 km/h (2 Bft) 97,87 %
13.02.2018 01:08 -0,8 C -1,1 C -3,9 C 87 % 0 lf 1014,9 hPa 0,0 l/m 0 min 0 min 0 W/m 9,0 km/h (2 Bft) 95,74 %
13.02.2018 01:10 -0,8 C -1,1 C -3,9 C 87 % 0 lf 1014,9 hPa 0,0 l/m 0 min 0 min 0 W/m 6,8 km/h (2 Bft) 100,00 %
13.02.2018 01:12 -0,8 C -1,1 C -3,3 C 87 % 0 lf 1014,9 hPa 0,0 l/m 0 min 0 min 0 W/m 9,0 km/h (2 Bft) 100,00 %
13.02.2018 01:14 -0,8 C -1,1 C -3,3 C 88 % 0 lf 1014,9 hPa 0,0 l/m 0 min 0 min 0 W/m 6,8 km/h (2 Bft) 100,00 %
13.02.2018 01:16 -0,8 C -1,1 C -3,3 C 87 % 0 lf 1014,9 hPa 0,0 l/m 0 min 0 min 0 W/m 6,8 km/h (2 Bft) 95,74 %
13.02.2018 01:18 -0,8 C -1,1 C -3,3 C 88 % 0 lf 1014,9 hPa 0,0 l/m 0 min 0 min 0 W/m 9,0 km/h (2 Bft) 100,00 %
13.02.2018 01:20 -0,8 C -1,1 C -3,3 C 88 % 0 lf 1014,9 hPa 0,0 l/m 0 min 0 min 0 W/m 9,0 km/h (2 Bft) 97,87 %
13.02.2018 01:22 -0,8 C -1,1 C -3,3 C 88 % 0 lf 1014,9 hPa 0,0 l/m 0 min 0 min 0 W/m 6,8 km/h (2 Bft) 95,74 %
13.02.2018 01:24 -0,8 C -1,1 C -3,3 C 88 % 0 lf 1014,9 hPa 0,0 l/m 0 min 0 min 0 W/m 11,3 km/h (2 Bft) 97,83 %
13.02.2018 01:26 -0,8 C -1,1 C -3,3 C 88 % 0 lf 1014,9 hPa 0,0 l/m 0 min 0 min 0 W/m 6,8 km/h (2 Bft) 93,62 %
13.02.2018 01:28 -0,8 C -1,1 C -3,3 C 88 % 0 lf 1014,9 hPa 0,0 l/m 0 min 0 min 0 W/m 9,0 km/h (2 Bft) 95,74 %
13.02.2018 01:30 -0,8 C -1,1 C -2,8 C 88 % 0 lf 1014,9 hPa 0,0 l/m 0 min 0 min 0 W/m 9,0 km/h (2 Bft) 95,74 %
13.02.2018 01:32 -0,9 C -1,1 C -3,3 C 88 % 0 lf 1014,9 hPa 0,0 l/m 0 min 0 min 0 W/m 11,3 km/h (2 Bft) 93,62 %
13.02.2018 01:34 -0,9 C -1,1 C -3,3 C 88 % 0 lf 1014,9 hPa 0,0 l/m 0 min 0 min 0 W/m 11,3 km/h (2 Bft) 93,62 %
13.02.2018 01:36 -0,9 C -1,1 C -3,3 C 88 % 0 lf 1014,8 hPa 0,0 l/m 0 min 0 min 0 W/m 13,5 km/h (3 Bft) 95,65 %
13.02.2018 01:38 -0,9 C -1,1 C -3,3 C 88 % 0 lf 1014,8 hPa 0,0 l/m 0 min 0 min 0 W/m 11,3 km/h (2 Bft) 91,49 %
13.02.2018 01:40 -0,9 C -1,1 C -3,3 C 88 % 0 lf 1014,8 hPa 0,0 l/m 0 min 0 min 0 W/m 11,3 km/h (2 Bft) 95,74 %
13.02.2018 01:42 -0,9 C -1,1 C -3,3 C 89 % 0 lf 1014,8 hPa 0,0 l/m 0 min 0 min 0 W/m 11,3 km/h (2 Bft) 95,74 %
13.02.2018 01:44 -0,8 C -1,1 C -2,8 C 89 % 0 lf 1014,8 hPa 0,0 l/m 0 min 0 min 0 W/m 18,0 km/h (3 Bft) 93,62 %
13.02.2018 01:46 -0,8 C -1,1 C -2,8 C 88 % 0 lf 1014,8 hPa 0,0 l/m 0 min 0 min 0 W/m 11,3 km/h (2 Bft) 95,65 %
13.02.2018 01:48 -0,8 C -1,1 C -2,8 C 88 % 0 lf 1014,8 hPa 0,0 l/m 0 min 0 min 0 W/m 11,3 km/h (2 Bft) 95,74 %
13.02.2018 01:50 -0,8 C -1,1 C -2,8 C 89 % 0 lf 1014,8 hPa 0,0 l/m 0 min 0 min 0 W/m 11,3 km/h (2 Bft) 95,74 %
13.02.2018 01:52 -0,8 C -1,1 C -2,8 C 89 % 0 lf 1014,8 hPa 0,0 l/m 0 min 0 min 0 W/m 11,3 km/h (2 Bft) 93,62 %
13.02.2018 01:54 -0,8 C -1,1 C -2,8 C 89 % 0 lf 1014,8 hPa 0,0 l/m 0 min 0 min 0 W/m 13,5 km/h (3 Bft) 95,74 %
13.02.2018 01:56 -0,8 C -1,1 C -2,8 C 89 % 0 lf 1014,8 hPa 0,0 l/m 0 min 0 min 0 W/m 11,3 km/h (2 Bft) 93,62 %
13.02.2018 01:58 -0,8 C -1,1 C -2,8 C 89 % 0 lf 1014,8 hPa 0,0 l/m 0 min 0 min 0 W/m 13,5 km/h (3 Bft) 93,48 %
13.02.2018 02:00 -0,8 C -1,1 C -2,8 C 89 % 0 lf 1014,7 hPa 0,0 l/m 0 min 0 min 0 W/m 11,3 km/h (2 Bft) 95,74 %
13.02.2018 02:02 -0,8 C -1,1 C -2,8 C 89 % 0 lf 1014,8 hPa 0,0 l/m 0 min 0 min 0 W/m 11,3 km/h (2 Bft) 97,87 %
13.02.2018 02:04 -0,8 C -1,1 C -2,8 C 89 % 0 lf 1014,7 hPa 0,0 l/m 0 min 0 min 0 W/m 11,3 km/h (2 Bft) 93,62 %
13.02.2018 02:06 -0,8 C -0,6 C -2,8 C 89 % 0 lf 1014,7 hPa 0,0 l/m 0 min 0 min 0 W/m 13,5 km/h (3 Bft) 95,74 %
13.02.2018 02:08 -0,8 C -0,6 C -2,8 C 89 % 0 lf 1014,7 hPa 0,0 l/m 0 min 0 min 0 W/m 15,8 km/h (3 Bft) 95,74 %
13.02.2018 02:10 -0,8 C -1,1 C -2,8 C 89 % 0 lf 1014,7 hPa 0,0 l/m 0 min 0 min 0 W/m 15,8 km/h (3 Bft) 97,83 %
13.02.2018 02:12 -0,8 C -1,1 C -2,8 C 89 % 0 lf 1014,7 hPa 0,0 l/m 0 min 0 min 0 W/m 11,3 km/h (2 Bft) 95,74 %
13.02.2018 02:14 -0,8 C -1,1 C -2,8 C 89 % 0 lf 1014,7 hPa 0,0 l/m 0 min 0 min 0 W/m 15,8 km/h (3 Bft) 97,37 %
13.02.2018 02:16 -0,8 C -1,1 C -2,8 C 89 % 0 lf 1014,6 hPa 0,0 l/m 0 min 0 min 0 W/m 9,0 km/h (2 Bft) 97,87 %
13.02.2018 02:18 -0,8 C -1,1 C -2,8 C 89 % 0 lf 1014,6 hPa 0,0 l/m 0 min 0 min 0 W/m 11,3 km/h (2 Bft) 97,87 %
13.02.2018 02:20 -0,7 C -1,1 C -2,8 C 89 % 0 lf 1014,6 hPa 0,0 l/m 0 min 0 min 0 W/m 13,5 km/h (3 Bft) 98,31 %
13.02.2018 02:22 -0,7 C -1,1 C -2,8 C 89 % 0 lf 1014,7 hPa 0,0 l/m 0 min 0 min 0 W/m 9,0 km/h (2 Bft) 97,14 %
13.02.2018 02:24 -0,7 C -1,1 C -3,3 C 89 % 0 lf 1014,7 hPa 0,0 l/m 0 min 0 min 0 W/m 11,3 km/h (2 Bft) 98,18 %
13.02.2018 02:26 -0,7 C -1,1 C -3,3 C 89 % 0 lf 1014,6 hPa 0,0 l/m 0 min 0 min 0 W/m 13,5 km/h (3 Bft) 97,87 %
13.02.2018 02:28 -0,7 C -1,1 C -2,8 C 89 % 0 lf 1014,6 hPa 0,0 l/m 0 min 0 min 0 W/m 11,3 km/h (2 Bft) 95,74 %
13.02.2018 02:30 -0,7 C -0,6 C -2,8 C 89 % 0 lf 1014,6 hPa 0,0 l/m 0 min 0 min 0 W/m 13,5 km/h (3 Bft) 95,74 %
13.02.2018 02:32 -0,7 C -0,6 C -2,8 C 89 % 0 lf 1014,6 hPa 0,0 l/m 0 min 0 min 0 W/m 11,3 km/h (2 Bft) 97,87 %
13.02.2018 02:34 -0,7 C -0,6 C -2,8 C 89 % 0 lf 1014,6 hPa 0,0 l/m 0 min 0 min 0 W/m 11,3 km/h (2 Bft) 93,48 %
13.02.2018 02:36 -0,7 C -0,6 C -2,8 C 89 % 0 lf 1014,6 hPa 0,0 l/m 0 min 0 min 0 W/m 13,5 km/h (3 Bft) 93,62 %
13.02.2018 02:38 -0,7 C -0,6 C -2,8 C 89 % 0 lf 1014,6 hPa 0,0 l/m 0 min 0 min 0 W/m 11,3 km/h (2 Bft) 93,62 %
13.02.2018 02:40 -0,7 C -1,1 C -2,8 C 89 % 0 lf 1014,6 hPa 0,0 l/m 0 min 0 min 0 W/m 9,0 km/h (2 Bft) 91,49 %
13.02.2018 02:42 -0,7 C -1,1 C -2,8 C 89 % 0 lf 1014,6 hPa 0,0 l/m 0 min 0 min 0 W/m 9,0 km/h (2 Bft) 93,62 %
13.02.2018 02:44 -0,7 C -1,1 C -2,8 C 89 % 0 lf 1014,6 hPa 0,0 l/m 0 min 0 min 0 W/m 9,0 km/h (2 Bft) 95,74 %
13.02.2018 02:46 -0,7 C -1,1 C -2,8 C 89 % 0 lf 1014,5 hPa 0,0 l/m 0 min 0 min 0 W/m 11,3 km/h (2 Bft) 95,65 %
13.02.2018 02:48 -0,7 C -1,1 C -2,8 C 89 % 0 lf 1014,5 hPa 0,0 l/m 0 min 0 min 0 W/m 11,3 km/h (2 Bft) 93,62 %
13.02.2018 02:50 -0,7 C -1,1 C -2,8 C 89 % 0 lf 1014,5 hPa 0,0 l/m 0 min 0 min 0 W/m 9,0 km/h (2 Bft) 95,74 %
13.02.2018 02:52 -0,7 C -1,1 C -3,3 C 89 % 0 lf 1014,5 hPa 0,0 l/m 0 min 0 min 0 W/m 6,8 km/h (2 Bft) 95,74 %
13.02.2018 02:54 -0,7 C -1,1 C -3,3 C 89 % 0 lf 1014,5 hPa 0,0 l/m 0 min 0 min 0 W/m 11,3 km/h (2 Bft) 95,74 %
13.02.2018 02:56 -0,8 C -1,1 C -2,8 C 89 % 0 lf 1014,5 hPa 0,0 l/m 0 min 0 min 0 W/m 9,0 km/h (2 Bft) 93,62 %
13.02.2018 02:58 -0,8 C -1,1 C -2,8 C 89 % 0 lf 1014,5 hPa 0,0 l/m 0 min 0 min 0 W/m 6,8 km/h (2 Bft) 95,65 %
13.02.2018 03:00 -0,8 C -1,1 C -3,3 C 89 % 0 lf 1014,5 hPa 0,0 l/m 0 min 0 min 0 W/m 9,0 km/h (2 Bft) 95,74 %
13.02.2018 03:02 -0,8 C -1,1 C -3,3 C 89 % 0 lf 1014,5 hPa 0,0 l/m 0 min 0 min 0 W/m 6,8 km/h (2 Bft) 93,62 %
13.02.2018 03:04 -0,8 C -1,1 C -3,3 C 89 % 0 lf 1014,5 hPa 0,0 l/m 0 min 0 min 0 W/m 9,0 km/h (2 Bft) 95,74 %
13.02.2018 03:06 -0,8 C -1,1 C -3,3 C 89 % 0 lf 1014,5 hPa 0,0 l/m 0 min 0 min 0 W/m 11,3 km/h (2 Bft) 95,74 %
13.02.2018 03:08 -0,8 C -1,1 C -3,3 C 89 % 0 lf 1014,5 hPa 0,0 l/m 0 min 0 min 0 W/m 9,0 km/h (2 Bft) 95,65 %
13.02.2018 03:10 -0,8 C -1,1 C -3,3 C 89 % 0 lf 1014,5 hPa 0,0 l/m 0 min 0 min 0 W/m 9,0 km/h (2 Bft) 97,87 %
13.02.2018 03:12 -0,9 C -1,1 C -3,3 C 89 % 0 lf 1014,5 hPa 0,0 l/m 0 min 0 min 0 W/m 9,0 km/h (2 Bft) 95,74 %
13.02.2018 03:14 -0,9 C -1,1 C -3,3 C 89 % 0 lf 1014,5 hPa 0,0 l/m 0 min 0 min 0 W/m 11,3 km/h (2 Bft) 97,87 %
13.02.2018 03:16 -0,9 C -1,1 C -3,3 C 89 % 0 lf 1014,4 hPa 0,0 l/m 0 min 0 min 0 W/m 9,0 km/h (2 Bft) 89,36 %
13.02.2018 03:18 -0,9 C -1,1 C -3,3 C 89 % 0 lf 1014,4 hPa 0,0 l/m 0 min 0 min 0 W/m 9,0 km/h (2 Bft) 97,87 %
13.02.2018 03:20 -0,9 C -1,7 C -3,3 C 89 % 0 lf 1014,3 hPa 0,0 l/m 0 min 0 min 0 W/m 9,0 km/h (2 Bft) 95,65 %
13.02.2018 03:22 -0,9 C -1,7 C -3,3 C 89 % 0 lf 1014,4 hPa 0,0 l/m 0 min 0 min 0 W/m 9,0 km/h (2 Bft) 95,74 %
13.02.2018 03:24 -0,9 C -1,1 C -3,3 C 89 % 0 lf 1014,4 hPa 0,0 l/m 0 min 0 min 0 W/m 9,0 km/h (2 Bft) 100,00 %
13.02.2018 03:26 -1,0 C -1,7 C -3,3 C 89 % 0 lf 1014,4 hPa 0,0 l/m 0 min 0 min 0 W/m 9,0 km/h (2 Bft) 96,00 %
13.02.2018 03:28 -1,0 C -1,1 C -3,3 C 89 % 0 lf 1014,3 hPa 0,0 l/m 0 min 0 min 0 W/m 9,0 km/h (2 Bft) 97,14 %
13.02.2018 03:30 -1,0 C -1,1 C -3,3 C 89 % 0 lf 1014,3 hPa 0,0 l/m 0 min 0 min 0 W/m 9,0 km/h (2 Bft) 95,74 %
13.02.2018 03:32 -1,0 C -1,1 C -3,3 C 89 % 0 lf 1014,3 hPa 0,0 l/m 0 min 0 min 0 W/m 9,0 km/h (2 Bft) 97,87 %
13.02.2018 03:34 -1,0 C -1,7 C -3,3 C 89 % 0 lf 1014,3 hPa 0,0 l/m 0 min 0 min 0 W/m 9,0 km/h (2 Bft) 97,83 %
13.02.2018 03:36 -1,1 C -1,7 C -3,3 C 89 % 0 lf 1014,2 hPa 0,0 l/m 0 min 0 min 0 W/m 9,0 km/h (2 Bft) 94,92 %
13.02.2018 03:38 -1,1 C -1,1 C -3,3 C 89 % 0 lf 1014,2 hPa 0,0 l/m 0 min 0 min 0 W/m 9,0 km/h (2 Bft) 94,29 %
13.02.2018 03:40 -1,1 C -1,7 C -3,3 C 89 % 0 lf 1014,2 hPa 0,0 l/m 0 min 0 min 0 W/m 6,8 km/h (2 Bft) 97,87 %
13.02.2018 03:42 -1,1 C -1,7 C -3,3 C 89 % 0 lf 1014,3 hPa 0,0 l/m 0 min 0 min 0 W/m 9,0 km/h (2 Bft) 97,87 %
13.02.2018 03:44 -1,1 C -1,7 C -3,9 C 89 % 0 lf 1014,2 hPa 0,0 l/m 0 min 0 min 0 W/m 9,0 km/h (2 Bft) 93,62 %
13.02.2018 03:46 -1,1 C -1,7 C -3,3 C 89 % 0 lf 1014,2 hPa 0,0 l/m 0 min 0 min 0 W/m 9,0 km/h (2 Bft) 93,48 %
13.02.2018 03:48 -1,1 C -1,1 C -3,3 C 89 % 0 lf 1014,1 hPa 0,0 l/m 0 min 0 min 0 W/m 6,8 km/h (2 Bft) 93,62 %
13.02.2018 03:50 -1,1 C -1,7 C -3,9 C 90 % 0 lf 1014,1 hPa 0,0 l/m 0 min 0 min 0 W/m 9,0 km/h (2 Bft) 96,61 %
13.02.2018 03:52 -1,1 C -1,7 C -3,3 C 90 % 0 lf 1014,0 hPa 0,0 l/m 0 min 0 min 0 W/m 9,0 km/h (2 Bft) 93,62 %
13.02.2018 03:54 -1,1 C -1,1 C -3,3 C 90 % 0 lf 1014,0 hPa 0,0 l/m 0 min 0 min 0 W/m 6,8 km/h (2 Bft) 94,29 %
13.02.2018 03:56 -1,1 C -1,1 C -3,3 C 90 % 0 lf 1014,0 hPa 0,0 l/m 0 min 0 min 0 W/m 9,0 km/h (2 Bft) 95,74 %
13.02.2018 03:58 -1,1 C -1,1 C -3,3 C 90 % 0 lf 1014,0 hPa 0,0 l/m 0 min 0 min 0 W/m 11,3 km/h (2 Bft) 95,65 %
13.02.2018 04:00 -1,1 C -1,1 C -3,3 C 90 % 0 lf 1014,0 hPa 0,0 l/m 0 min 0 min 0 W/m 11,3 km/h (2 Bft) 97,87 %
13.02.2018 04:02 -1,1 C -1,1 C -3,3 C 90 % 0 lf 1014,0 hPa 0,0 l/m 0 min 0 min 0 W/m 11,3 km/h (2 Bft) 100,00 %
13.02.2018 04:04 -1,1 C -1,1 C -3,3 C 90 % 0 lf 1013,9 hPa 0,0 l/m 0 min 0 min 0 W/m 6,8 km/h (2 Bft) 100,00 %
13.02.2018 04:06 -1,1 C -1,1 C -3,3 C 90 % 0 lf 1014,0 hPa 0,0 l/m 0 min 0 min 0 W/m 11,3 km/h (2 Bft) 97,87 %
13.02.2018 04:08 -1,1 C -1,1 C -3,3 C 90 % 0 lf 1013,9 hPa 0,0 l/m 0 min 0 min 0 W/m 11,3 km/h (2 Bft) 97,87 %
13.02.2018 04:10 -1,1 C -1,1 C -2,8 C 90 % 0 lf 1014,0 hPa 0,0 l/m 0 min 0 min 0 W/m 9,0 km/h (2 Bft) 97,83 %
13.02.2018 04:12 -1,1 C -1,1 C -2,8 C 90 % 0 lf 1014,0 hPa 0,0 l/m 0 min 0 min 0 W/m 9,0 km/h (2 Bft) 95,74 %
13.02.2018 04:14 -1,1 C -1,1 C -2,8 C 90 % 0 lf 1014,0 hPa 0,0 l/m 0 min 0 min 0 W/m 11,3 km/h (2 Bft) 97,87 %
13.02.2018 04:16 -1,1 C -1,1 C -2,8 C 90 % 0 lf 1014,0 hPa 0,0 l/m 0 min 0 min 0 W/m 9,0 km/h (2 Bft) 97,87 %
13.02.2018 04:18 -1,1 C -1,1 C -3,3 C 90 % 0 lf 1013,9 hPa 0,0 l/m 0 min 0 min 0 W/m 9,0 km/h (2 Bft) 95,35 %
13.02.2018 04:20 -1,1 C -1,1 C -3,3 C 90 % 0 lf 1013,9 hPa 0,0 l/m 0 min 0 min 0 W/m 9,0 km/h (2 Bft) 96,55 %
13.02.2018 04:22 -1,1 C -1,7 C -3,3 C 90 % 0 lf 1013,9 hPa 0,0 l/m 0 min 0 min 0 W/m 6,8 km/h (2 Bft) 97,87 %
13.02.2018 04:24 -1,2 C -1,7 C -3,3 C 90 % 0 lf 1013,9 hPa 0,0 l/m 0 min 0 min 0 W/m 9,0 km/h (2 Bft) 100,00 %
13.02.2018 04:26 -1,2 C -1,7 C -3,3 C 90 % 0 lf 1013,9 hPa 0,0 l/m 0 min 0 min 0 W/m 9,0 km/h (2 Bft) 100,00 %
13.02.2018 04:28 -1,2 C -1,7 C -3,3 C 90 % 0 lf 1013,9 hPa 0,0 l/m 0 min 0 min 0 W/m 13,5 km/h (3 Bft) 95,74 %
13.02.2018 04:30 -1,2 C -1,7 C -3,3 C 90 % 0 lf 1013,9 hPa 0,0 l/m 0 min 0 min 0 W/m 13,5 km/h (3 Bft) 100,00 %
13.02.2018 04:32 -1,2 C -1,7 C -3,3 C 90 % 0 lf 1013,8 hPa 0,0 l/m 0 min 0 min 0 W/m 6,8 km/h (2 Bft) 100,00 %
13.02.2018 04:34 -1,2 C -1,7 C -3,3 C 90 % 0 lf 1013,8 hPa 0,0 l/m 0 min 0 min 0 W/m 11,3 km/h (2 Bft) 97,87 %
13.02.2018 04:36 -1,2 C -1,7 C -3,3 C 90 % 0 lf 1013,8 hPa 0,0 l/m 0 min 0 min 0 W/m 9,0 km/h (2 Bft) 100,00 %
13.02.2018 04:38 -1,2 C -1,7 C -3,3 C 90 % 0 lf 1013,8 hPa 0,0 l/m 0 min 0 min 0 W/m 11,3 km/h (2 Bft) 100,00 %
13.02.2018 04:40 -1,3 C -1,7 C -3,3 C 90 % 0 lf 1013,7 hPa 0,0 l/m 0 min 0 min 0 W/m 11,3 km/h (2 Bft) 95,74 %
13.02.2018 04:42 -1,3 C -1,7 C -3,3 C 90 % 0 lf 1013,7 hPa 0,0 l/m 0 min 0 min 0 W/m 13,5 km/h (3 Bft) 100,00 %
13.02.2018 04:44 -1,3 C -1,7 C -3,3 C 90 % 0 lf 1013,7 hPa 0,0 l/m 0 min 0 min 0 W/m 9,0 km/h (2 Bft) 97,87 %
13.02.2018 04:46 -1,3 C -1,7 C -3,3 C 90 % 0 lf 1013,6 hPa 0,0 l/m 0 min 0 min 0 W/m 13,5 km/h (3 Bft) 97,83 %
13.02.2018 04:48 -1,3 C -1,7 C -3,3 C 90 % 0 lf 1013,6 hPa 0,0 l/m 0 min 0 min 0 W/m 9,0 km/h (2 Bft) 100,00 %
13.02.2018 04:50 -1,3 C -1,7 C -3,3 C 90 % 0 lf 1013,6 hPa 0,0 l/m 0 min 0 min 0 W/m 9,0 km/h (2 Bft) 100,00 %
13.02.2018 04:52 -1,3 C -1,7 C -3,3 C 90 % 0 lf 1013,6 hPa 0,0 l/m 0 min 0 min 0 W/m 9,0 km/h (2 Bft) 95,74 %
13.02.2018 04:54 -1,4 C -1,7 C -3,3 C 90 % 0 lf 1013,6 hPa 0,0 l/m 0 min 0 min 0 W/m 11,3 km/h (2 Bft) 100,00 %
13.02.2018 04:56 -1,4 C -1,7 C -3,3 C 90 % 0 lf 1013,6 hPa 0,0 l/m 0 min 0 min 0 W/m 11,3 km/h (2 Bft) 97,87 %
13.02.2018 04:58 -1,4 C -1,7 C -3,3 C 90 % 0 lf 1013,5 hPa 0,0 l/m 0 min 0 min 0 W/m 9,0 km/h (2 Bft) 100,00 %
13.02.2018 05:00 -1,4 C -1,7 C -3,3 C 90 % 0 lf 1013,5 hPa 0,0 l/m 0 min 0 min 0 W/m 9,0 km/h (2 Bft) 98,28 %
13.02.2018 05:02 -1,4 C -1,7 C -3,3 C 90 % 0 lf 1013,5 hPa 0,0 l/m 0 min 0 min 0 W/m 11,3 km/h (2 Bft) 95,74 %
13.02.2018 05:04 -1,4 C -1,7 C -3,3 C 90 % 0 lf 1013,6 hPa 0,0 l/m 0 min 0 min 0 W/m 11,3 km/h (2 Bft) 100,00 %
13.02.2018 05:06 -1,4 C -1,7 C -3,3 C 90 % 0 lf 1013,5 hPa 0,0 l/m 0 min 0 min 0 W/m 9,0 km/h (2 Bft) 100,00 %
13.02.2018 05:08 -1,4 C -1,7 C -3,3 C 90 % 0 lf 1013,4 hPa 0,0 l/m 0 min 0 min 0 W/m 11,3 km/h (2 Bft) 100,00 %
13.02.2018 05:10 -1,4 C -1,7 C -3,3 C 90 % 0 lf 1013,5 hPa 0,0 l/m 0 min 0 min 0 W/m 11,3 km/h (2 Bft) 100,00 %
13.02.2018 05:12 -1,4 C -1,7 C -3,3 C 90 % 0 lf 1013,5 hPa 0,0 l/m 0 min 0 min 0 W/m 11,3 km/h (2 Bft) 97,87 %
13.02.2018 05:14 -1,4 C -1,7 C -3,3 C 90 % 0 lf 1013,4 hPa 0,0 l/m 0 min 0 min 0 W/m 11,3 km/h (2 Bft) 96,61 %
13.02.2018 05:16 -1,5 C -1,7 C -3,3 C 90 % 0 lf 1013,4 hPa 0,0 l/m 0 min 0 min 0 W/m 9,0 km/h (2 Bft) 100,00 %
13.02.2018 05:18 -1,5 C -1,7 C -3,3 C 91 % 0 lf 1013,4 hPa 0,0 l/m 0 min 0 min 0 W/m 9,0 km/h (2 Bft) 100,00 %
13.02.2018 05:20 -1,5 C -1,7 C -3,3 C 91 % 0 lf 1013,4 hPa 0,0 l/m 0 min 0 min 0 W/m 9,0 km/h (2 Bft) 98,28 %
13.02.2018 05:22 -1,5 C -1,7 C -3,3 C 91 % 0 lf 1013,4 hPa 0,0 l/m 0 min 0 min 0 W/m 9,0 km/h (2 Bft) 97,14 %
13.02.2018 05:24 -1,5 C -1,7 C -3,3 C 91 % 0 lf 1013,4 hPa 0,0 l/m 0 min 0 min 0 W/m 11,3 km/h (2 Bft) 97,87 %
13.02.2018 05:26 -1,6 C -1,7 C -3,3 C 91 % 0 lf 1013,4 hPa 0,0 l/m 0 min 0 min 0 W/m 9,0 km/h (2 Bft) 97,87 %
13.02.2018 05:28 -1,6 C -1,7 C -3,3 C 91 % 0 lf 1013,4 hPa 0,0 l/m 0 min 0 min 0 W/m 9,0 km/h (2 Bft) 95,74 %
13.02.2018 05:30 -1,6 C -1,7 C -3,3 C 91 % 0 lf 1013,3 hPa 0,0 l/m 0 min 0 min 0 W/m 6,8 km/h (2 Bft) 97,87 %
13.02.2018 05:32 -1,6 C -1,7 C -3,3 C 91 % 0 lf 1013,3 hPa 0,0 l/m 0 min 0 min 0 W/m 9,0 km/h (2 Bft) 93,62 %
13.02.2018 05:34 -1,6 C -1,7 C -3,3 C 91 % 0 lf 1013,4 hPa 0,0 l/m 0 min 0 min 0 W/m 9,0 km/h (2 Bft) 97,83 %
13.02.2018 05:35 -1,6 C -1,7 C -3,3 C 91 % 0 lf 1013,3 hPa 0,0 l/m 0 min 0 min 0 W/m 9,0 km/h (2 Bft) 98,25 %
13.02.2018 05:40 -1,6 C -1,7 C -3,3 C 91 % 0 lf 1013,4 hPa 0,0 l/m 0 min 0 min 0 W/m 11,3 km/h (2 Bft) 86,84 %
13.02.2018 05:45 -1,6 C -1,7 C -3,3 C 91 % 0 lf 1013,3 hPa 0,0 l/m 0 min 0 min 0 W/m 11,3 km/h (2 Bft) 96,49 %
13.02.2018 05:50 -1,6 C -2,2 C -3,3 C 91 % 0 lf 1013,2 hPa 0,0 l/m 0 min 0 min 0 W/m 13,5 km/h (3 Bft) 98,25 %
13.02.2018 05:55 -1,7 C -2,2 C -3,3 C 91 % 0 lf 1013,2 hPa 0,0 l/m 0 min 0 min 0 W/m 11,3 km/h (2 Bft) 99,12 %
13.02.2018 06:00 -1,7 C -1,7 C -3,3 C 91 % 0 lf 1013,2 hPa 0,0 l/m 0 min 0 min 0 W/m 11,3 km/h (2 Bft) 100,00 %
13.02.2018 06:05 -1,7 C -2,2 C -3,9 C 91 % 0 lf 1013,1 hPa 0,0 l/m 0 min 0 min 0 W/m 13,5 km/h (3 Bft) 97,37 %
13.02.2018 06:10 -1,7 C -2,2 C -3,9 C 91 % 0 lf 1013,1 hPa 0,0 l/m 0 min 0 min 0 W/m 11,3 km/h (2 Bft) 97,37 %
13.02.2018 06:15 -1,8 C -2,2 C -3,9 C 91 % 0 lf 1013,0 hPa 0,0 l/m 0 min 0 min 0 W/m 13,5 km/h (3 Bft) 94,74 %
13.02.2018 06:20 -1,8 C -2,2 C -3,9 C 91 % 0 lf 1013,0 hPa 0,0 l/m 0 min 0 min 0 W/m 15,8 km/h (3 Bft) 92,11 %
13.02.2018 06:25 -1,8 C -2,2 C -3,3 C 91 % 0 lf 1013,0 hPa 0,0 l/m 0 min 0 min 0 W/m 11,3 km/h (2 Bft) 92,98 %
13.02.2018 06:30 -1,8 C -1,7 C -3,3 C 91 % 0 lf 1013,0 hPa 0,0 l/m 0 min 0 min 0 W/m 15,8 km/h (3 Bft) 97,37 %
13.02.2018 06:35 -1,8 C -2,2 C -3,3 C 92 % 0 lf 1012,9 hPa 0,0 l/m 0 min 0 min 0 W/m 13,5 km/h (3 Bft) 97,37 %
13.02.2018 06:40 -1,8 C -2,2 C -3,3 C 92 % 0 lf 1013,0 hPa 0,0 l/m 0 min 0 min 0 W/m 9,0 km/h (2 Bft) 99,12 %
13.02.2018 06:45 -1,8 C -2,2 C -3,3 C 92 % 0 lf 1012,9 hPa 0,0 l/m 0 min 0 min 0 W/m 13,5 km/h (3 Bft) 97,37 %
13.02.2018 06:50 -1,8 C -2,2 C -3,9 C 92 % 0 lf 1012,9 hPa 0,0 l/m 0 min 0 min 0 W/m 13,5 km/h (3 Bft) 99,12 %
13.02.2018 06:55 -1,9 C -2,2 C -3,9 C 92 % 0 lf 1012,9 hPa 0,0 l/m 0 min 0 min 0 W/m 13,5 km/h (3 Bft) 100,00 %
13.02.2018 07:08 -1,9 C -2,2 C -3,3 C 92 % 0 lf 1012,8 hPa 0,0 l/m 0 min 0 min 0 W/m 13,5 km/h (3 Bft) 94,00 %
13.02.2018 07:10 -1,9 C -2,2 C -3,3 C 92 % 0 lf 1012,9 hPa 0,0 l/m 0 min 0 min 0 W/m 18,0 km/h (3 Bft) 95,74 %
13.02.2018 07:12 -1,9 C -2,2 C -3,3 C 92 % 0 lf 1012,9 hPa 0,0 l/m 0 min 0 min 0 W/m 13,5 km/h (3 Bft) 100,00 %
13.02.2018 07:14 -1,9 C -2,2 C -3,3 C 92 % 0 lf 1012,9 hPa 0,0 l/m 0 min 0 min 0 W/m 15,8 km/h (3 Bft) 93,75 %
13.02.2018 07:16 -1,9 C -2,2 C -3,3 C 92 % 0 lf 1012,9 hPa 0,0 l/m 0 min 0 min 0 W/m 13,5 km/h (3 Bft) 95,83 %
13.02.2018 07:18 -1,9 C -2,2 C -3,9 C 92 % 0 lf 1012,8 hPa 0,0 l/m 0 min 0 min 0 W/m 9,0 km/h (2 Bft) 100,00 %
13.02.2018 07:20 -1,9 C -2,2 C -3,9 C 92 % 0 lf 1012,7 hPa 0,0 l/m 0 min 0 min 0 W/m 11,3 km/h (2 Bft) 97,87 %
13.02.2018 07:22 -1,9 C -2,2 C -3,9 C 92 % 0 lf 1012,7 hPa 0,0 l/m 0 min 0 min 0 W/m 13,5 km/h (3 Bft) 100,00 %
13.02.2018 07:24 -1,9 C -2,2 C -3,9 C 92 % 0 lf 1012,7 hPa 0,0 l/m 0 min 0 min 0 W/m 18,0 km/h (3 Bft) 97,83 %
13.02.2018 07:26 -1,9 C -2,2 C -3,9 C 92 % 0 lf 1012,7 hPa 0,0 l/m 0 min 0 min 0 W/m 15,8 km/h (3 Bft) 100,00 %
13.02.2018 07:28 -1,9 C -2,2 C -3,3 C 92 % 0 lf 1012,7 hPa 0,0 l/m 0 min 0 min 0 W/m 11,3 km/h (2 Bft) 100,00 %
13.02.2018 07:30 -1,9 C -2,2 C -3,3 C 92 % 0 lf 1012,7 hPa 0,0 l/m 0 min 0 min 0 W/m 13,5 km/h (3 Bft) 100,00 %
13.02.2018 07:32 -1,9 C -2,2 C -3,3 C 92 % 0 lf 1012,7 hPa 0,0 l/m 0 min 0 min 0 W/m 13,5 km/h (3 Bft) 97,96 %
13.02.2018 07:34 -1,9 C -2,2 C -3,9 C 92 % 0 lf 1012,7 hPa 0,0 l/m 0 min 0 min 0 W/m 11,3 km/h (2 Bft) 100,00 %
13.02.2018 07:36 -1,9 C -2,2 C -3,9 C 92 % 0 lf 1012,7 hPa 0,0 l/m 0 min 0 min 0 W/m 13,5 km/h (3 Bft) 100,00 %
13.02.2018 07:38 -1,9 C -2,2 C -3,3 C 92 % 0 lf 1012,7 hPa 0,0 l/m 0 min 0 min 0 W/m 13,5 km/h (3 Bft) 97,92 %
13.02.2018 07:40 -1,9 C -2,2 C -3,9 C 92 % 0 lf 1012,7 hPa 0,0 l/m 0 min 0 min 0 W/m 11,3 km/h (2 Bft) 97,92 %
13.02.2018 07:42 -1,9 C -2,2 C -3,9 C 92 % 0 lf 1012,7 hPa 0,0 l/m 0 min 0 min 0 W/m 11,3 km/h (2 Bft) 100,00 %
13.02.2018 07:44 -1,9 C -2,2 C -3,9 C 92 % 0 lf 1012,7 hPa 0,0 l/m 0 min 0 min 0 W/m 11,3 km/h (2 Bft) 100,00 %
13.02.2018 07:46 -1,9 C -2,2 C -3,9 C 92 % 0 lf 1012,8 hPa 0,0 l/m 0 min 0 min 4 W/m 11,3 km/h (2 Bft) 100,00 %
13.02.2018 07:48 -1,9 C -2,2 C -3,9 C 92 % 0 lf 1012,8 hPa 0,0 l/m 0 min 0 min 5 W/m 11,3 km/h (2 Bft) 100,00 %
13.02.2018 07:50 -1,9 C -2,2 C -3,9 C 92 % 0 lf 1012,8 hPa 0,0 l/m 0 min 0 min 5 W/m 13,5 km/h (3 Bft) 97,92 %
13.02.2018 07:52 -1,9 C -2,2 C -3,9 C 92 % 0 lf 1012,7 hPa 0,0 l/m 0 min 0 min 7 W/m 11,3 km/h (2 Bft) 100,00 %
13.02.2018 07:54 -1,9 C -2,2 C -3,9 C 92 % 0 lf 1012,8 hPa 0,0 l/m 0 min 0 min 7 W/m 11,3 km/h (2 Bft) 100,00 %
13.02.2018 07:56 -1,9 C -2,2 C -3,9 C 92 % 0 lf 1012,6 hPa 0,0 l/m 0 min 0 min 9 W/m 13,5 km/h (3 Bft) 97,92 %
13.02.2018 07:58 -1,9 C -2,2 C -3,9 C 92 % 0 lf 1012,7 hPa 0,0 l/m 0 min 0 min 9 W/m 11,3 km/h (2 Bft) 93,62 %
13.02.2018 08:00 -1,9 C -2,2 C -3,9 C 92 % 0 lf 1012,8 hPa 0,0 l/m 0 min 0 min 11 W/m 9,0 km/h (2 Bft) 100,00 %
13.02.2018 08:02 -1,9 C -2,2 C -3,9 C 92 % 0 lf 1012,8 hPa 0,0 l/m 0 min 0 min 11 W/m 9,0 km/h (2 Bft) 100,00 %
13.02.2018 08:04 -1,9 C -2,2 C -3,9 C 92 % 0 lf 1012,7 hPa 0,0 l/m 0 min 0 min 12 W/m 11,3 km/h (2 Bft) 97,87 %
13.02.2018 08:06 -1,9 C -2,2 C -3,9 C 92 % 0 lf 1012,8 hPa 0,0 l/m 0 min 0 min 12 W/m 11,3 km/h (2 Bft) 100,00 %
13.02.2018 08:08 -1,9 C -2,2 C -3,9 C 92 % 0 lf 1012,8 hPa 0,0 l/m 0 min 0 min 14 W/m 11,3 km/h (2 Bft) 97,87 %
13.02.2018 08:10 -1,9 C -2,2 C -3,9 C 92 % 0 lf 1012,7 hPa 0,0 l/m 0 min 0 min 14 W/m 11,3 km/h (2 Bft) 100,00 %
13.02.2018 08:12 -1,9 C -1,7 C -3,9 C 92 % 0 lf 1012,8 hPa 0,0 l/m 0 min 0 min 16 W/m 11,3 km/h (2 Bft) 100,00 %
13.02.2018 08:14 -1,9 C -2,2 C -3,9 C 92 % 0 lf 1012,7 hPa 0,0 l/m 0 min 0 min 18 W/m 9,0 km/h (2 Bft) 95,74 %
13.02.2018 08:16 -1,9 C -1,7 C -3,9 C 92 % 0 lf 1012,6 hPa 0,0 l/m 0 min 0 min 18 W/m 9,0 km/h (2 Bft) 100,00 %
13.02.2018 08:18 -1,9 C -1,7 C -3,9 C 92 % 0 lf 1012,7 hPa 0,0 l/m 0 min 0 min 19 W/m 9,0 km/h (2 Bft) 100,00 %
13.02.2018 08:20 -1,9 C -1,7 C -3,3 C 92 % 0 lf 1012,7 hPa 0,0 l/m 0 min 0 min 21 W/m 9,0 km/h (2 Bft) 100,00 %
13.02.2018 08:22 -1,9 C -1,7 C -3,3 C 92 % 0 lf 1012,8 hPa 0,0 l/m 0 min 0 min 26 W/m 9,0 km/h (2 Bft) 100,00 %
13.02.2018 08:24 -1,9 C -1,7 C -3,3 C 92 % 0 lf 1012,7 hPa 0,0 l/m 0 min 0 min 25 W/m 11,3 km/h (2 Bft) 97,87 %
13.02.2018 08:26 -1,9 C -1,7 C -3,3 C 92 % 0 lf 1012,7 hPa 0,0 l/m 0 min 0 min 28 W/m 11,3 km/h (2 Bft) 100,00 %
13.02.2018 08:28 -1,9 C -1,7 C -3,3 C 92 % 0 lf 1012,7 hPa 0,0 l/m 0 min 0 min 36 W/m 13,5 km/h (3 Bft) 100,00 %
13.02.2018 08:30 -1,9 C -1,7 C -3,3 C 92 % 0 lf 1012,7 hPa 0,0 l/m 0 min 0 min 39 W/m 15,8 km/h (3 Bft) 97,87 %
13.02.2018 08:32 -1,9 C -1,7 C -3,3 C 92 % 0 lf 1012,7 hPa 0,0 l/m 0 min 0 min 42 W/m 11,3 km/h (2 Bft) 97,87 %
13.02.2018 08:34 -1,9 C -1,7 C -3,3 C 92 % 0 lf 1012,6 hPa 0,0 l/m 0 min 0 min 46 W/m 13,5 km/h (3 Bft) 97,87 %
13.02.2018 08:36 -1,8 C -1,7 C -3,3 C 92 % 0 lf 1012,6 hPa 0,0 l/m 0 min 0 min 49 W/m 13,5 km/h (3 Bft) 95,83 %
13.02.2018 08:38 -1,8 C -1,7 C -3,3 C 92 % 0 lf 1012,6 hPa 0,0 l/m 0 min 0 min 53 W/m 13,5 km/h (3 Bft) 93,62 %
13.02.2018 08:40 -1,8 C -1,7 C -2,8 C 92 % 0 lf 1012,6 hPa 0,0 l/m 0 min 0 min 57 W/m 11,3 km/h (2 Bft) 95,74 %
13.02.2018 08:42 -1,8 C -1,1 C -2,8 C 92 % 0 lf 1012,6 hPa 0,0 l/m 2 min 0 min 62 W/m 13,5 km/h (3 Bft) 95,74 %
13.02.2018 08:44 -1,8 C -1,1 C -2,8 C 92 % 0 lf 1012,7 hPa 0,0 l/m 2 min 0 min 65 W/m 11,3 km/h (2 Bft) 95,74 %
13.02.2018 08:46 -1,7 C -1,1 C -2,8 C 92 % 0 lf 1012,6 hPa 0,0 l/m 2 min 0 min 70 W/m 15,8 km/h (3 Bft) 93,75 %
13.02.2018 08:48 -1,7 C -1,1 C -2,8 C 92 % 0 lf 1012,6 hPa 0,0 l/m 2 min 0 min 74 W/m 11,3 km/h (2 Bft) 95,74 %
13.02.2018 08:50 -1,7 C -1,1 C -2,8 C 92 % 0 lf 1012,5 hPa 0,0 l/m 2 min 0 min 78 W/m 13,5 km/h (3 Bft) 93,62 %
13.02.2018 08:52 -1,6 C -1,1 C -2,8 C 92 % 0 lf 1012,5 hPa 0,0 l/m 2 min 0 min 82 W/m 13,5 km/h (3 Bft) 93,75 %
13.02.2018 08:54 -1,6 C -1,1 C -2,2 C 92 % 0 lf 1012,5 hPa 0,0 l/m 2 min 0 min 85 W/m 13,5 km/h (3 Bft) 93,62 %
13.02.2018 08:56 -1,5 C -1,1 C -2,2 C 92 % 0 lf 1012,4 hPa 0,0 l/m 2 min 0 min 91 W/m 13,5 km/h (3 Bft) 93,48 %
13.02.2018 08:58 -1,4 C -0,6 C -2,2 C 92 % 0 lf 1012,4 hPa 0,0 l/m 2 min 0 min 97 W/m 13,5 km/h (3 Bft) 95,74 %
13.02.2018 09:00 -1,4 C -0,6 C -2,2 C 92 % 0 lf 1012,4 hPa 0,0 l/m 2 min 0 min 102 W/m 13,5 km/h (3 Bft) 97,87 %
13.02.2018 09:02 -1,4 C -0,6 C -2,2 C 92 % 0 lf 1012,4 hPa 0,0 l/m 2 min 0 min 106 W/m 11,3 km/h (2 Bft) 91,84 %
13.02.2018 09:04 -1,3 C -0,6 C -2,2 C 92 % 0 lf 1012,4 hPa 0,0 l/m 2 min 0 min 112 W/m 11,3 km/h (2 Bft) 93,62 %
13.02.2018 09:06 -1,3 C -0,6 C -2,2 C 92 % 0 lf 1012,4 hPa 0,0 l/m 2 min 0 min 117 W/m 11,3 km/h (2 Bft) 87,23 %
13.02.2018 09:08 -1,2 C -0,6 C -2,2 C 92 % 0 lf 1012,4 hPa 0,0 l/m 2 min 0 min 122 W/m 9,0 km/h (2 Bft) 95,65 %
13.02.2018 09:10 -1,2 C -0,6 C -2,2 C 92 % 0 lf 1012,3 hPa 0,0 l/m 2 min 0 min 127 W/m 11,3 km/h (2 Bft) 95,74 %
13.02.2018 09:12 -1,2 C -0,6 C -2,2 C 92 % 0 lf 1012,3 hPa 0,0 l/m 2 min 0 min 132 W/m 11,3 km/h (2 Bft) 93,62 %
13.02.2018 09:14 -1,1 C 0,0 C -2,2 C 92 % 0 lf 1012,4 hPa 0,0 l/m 2 min 0 min 137 W/m 15,8 km/h (3 Bft) 93,62 %
13.02.2018 09:16 -1,0 C 0,0 C -1,7 C 92 % 0 lf 1012,3 hPa 0,0 l/m 2 min 0 min 143 W/m 15,8 km/h (3 Bft) 93,62 %
13.02.2018 09:18 -1,0 C 0,0 C -1,7 C 92 % 0 lf 1012,3 hPa 0,0 l/m 2 min 0 min 148 W/m 13,5 km/h (3 Bft) 91,30 %
13.02.2018 09:20 -0,9 C 0,0 C -1,7 C 92 % 0 lf 1012,3 hPa 0,0 l/m 2 min 0 min 154 W/m 11,3 km/h (2 Bft) 93,62 %
13.02.2018 09:22 -0,8 C 0,0 C -1,7 C 92 % 0 lf 1012,3 hPa 0,0 l/m 2 min 0 min 159 W/m 9,0 km/h (2 Bft) 97,87 %
13.02.2018 09:24 -0,8 C 0,0 C -1,7 C 92 % 0 lf 1012,3 hPa 0,0 l/m 2 min 0 min 164 W/m 13,5 km/h (3 Bft) 93,62 %
13.02.2018 09:26 -0,8 C 0,0 C -1,7 C 92 % 0 lf 1012,2 hPa 0,0 l/m 2 min 0 min 170 W/m 13,5 km/h (3 Bft) 97,87 %
13.02.2018 09:28 -0,7 C 0,6 C -1,7 C 92 % 0 lf 1012,3 hPa 0,0 l/m 2 min 0 min 176 W/m 15,8 km/h (3 Bft) 100,00 %
13.02.2018 09:30 -0,6 C 1,1 C -1,7 C 92 % 0 lf 1012,3 hPa 0,0 l/m 2 min 0 min 180 W/m 13,5 km/h (3 Bft) 97,83 %
13.02.2018 09:32 -0,6 C 3,3 C -1,7 C 92 % 0 lf 1012,3 hPa 0,0 l/m 2 min 0 min 185 W/m 15,8 km/h (3 Bft) 97,87 %
13.02.2018 09:34 -0,5 C 4,4 C -1,1 C 92 % 0 lf 1012,3 hPa 0,0 l/m 2 min 0 min 192 W/m 13,5 km/h (3 Bft) 95,74 %
13.02.2018 09:36 -0,4 C 5,0 C -1,1 C 91 % 0 lf 1012,3 hPa 0,0 l/m 2 min 0 min 197 W/m 13,5 km/h (3 Bft) 97,87 %
13.02.2018 09:38 -0,3 C 6,1 C -1,1 C 91 % 0 lf 1012,3 hPa 0,0 l/m 2 min 0 min 201 W/m 15,8 km/h (3 Bft) 97,87 %
13.02.2018 09:40 -0,2 C 5,6 C -1,1 C 91 % 0 lf 1012,2 hPa 0,0 l/m 2 min 0 min 206 W/m 13,5 km/h (3 Bft) 97,87 %
13.02.2018 09:42 -0,1 C 5,6 C -1,1 C 91 % 0 lf 1012,3 hPa 0,0 l/m 2 min 0 min 211 W/m 15,8 km/h (3 Bft) 95,65 %
13.02.2018 09:44 0,1 C 6,1 C -1,1 C 91 % 0 lf 1012,3 hPa 0,0 l/m 2 min 0 min 217 W/m 15,8 km/h (3 Bft) 97,87 %
13.02.2018 09:46 0,2 C 5,6 C -0,6 C 91 % 0 lf 1012,3 hPa 0,0 l/m 2 min 0 min 222 W/m 18,0 km/h (3 Bft) 93,62 %
13.02.2018 09:48 0,3 C 6,1 C -0,6 C 91 % 0 lf 1012,3 hPa 0,0 l/m 2 min 0 min 227 W/m 13,5 km/h (3 Bft) 95,74 %
13.02.2018 09:50 0,5 C 6,1 C -0,6 C 91 % 0 lf 1012,3 hPa 0,0 l/m 2 min 0 min 232 W/m 18,0 km/h (3 Bft) 97,92 %
13.02.2018 09:52 0,5 C 6,7 C -0,6 C 90 % 0 lf 1012,2 hPa 0,0 l/m 2 min 0 min 237 W/m 11,3 km/h (2 Bft) 100,00 %
13.02.2018 09:54 0,7 C 6,7 C 0,0 C 90 % 0 lf 1012,2 hPa 0,0 l/m 2 min 0 min 242 W/m 11,3 km/h (2 Bft) 97,83 %
13.02.2018 09:56 0,8 C 6,1 C 0,6 C 90 % 0 lf 1012,3 hPa 0,0 l/m 2 min 0 min 246 W/m 15,8 km/h (3 Bft) 97,87 %
13.02.2018 09:58 0,9 C 6,1 C 1,7 C 89 % 0 lf 1012,3 hPa 0,0 l/m 2 min 0 min 251 W/m 15,8 km/h (3 Bft) 97,87 %
13.02.2018 10:00 1,0 C 6,7 C 1,7 C 89 % 0 lf 1012,2 hPa 0,0 l/m 2 min 0 min 255 W/m 18,0 km/h (3 Bft) 97,92 %
13.02.2018 10:02 1,1 C 6,7 C 1,7 C 89 % 0 lf 1012,3 hPa 0,0 l/m 2 min 0 min 259 W/m 22,5 km/h (4 Bft) 97,87 %
13.02.2018 10:04 1,2 C 5,6 C 1,7 C 88 % 0 lf 1012,2 hPa 0,0 l/m 2 min 0 min 264 W/m 27,0 km/h (4 Bft) 95,74 %
13.02.2018 10:06 1,3 C 6,1 C 1,1 C 87 % 0 lf 1012,2 hPa 0,0 l/m 2 min 0 min 267 W/m 18,0 km/h (3 Bft) 97,83 %
13.02.2018 10:08 1,4 C 6,1 C 1,1 C 87 % 0 lf 1012,3 hPa 0,0 l/m 2 min 0 min 272 W/m 24,8 km/h (4 Bft) 95,74 %
13.02.2018 10:10 1,4 C 6,7 C 1,1 C 86 % 0 lf 1012,2 hPa 0,0 l/m 2 min 0 min 277 W/m 18,0 km/h (3 Bft) 97,87 %
13.02.2018 10:12 1,6 C 6,1 C 0,6 C 86 % 0 lf 1012,2 hPa 0,0 l/m 2 min 0 min 279 W/m 22,5 km/h (4 Bft) 95,74 %
13.02.2018 10:14 1,6 C 6,7 C 0,6 C 85 % 0 lf 1012,2 hPa 0,0 l/m 2 min 0 min 286 W/m 31,5 km/h (5 Bft) 97,87 %
13.02.2018 10:16 1,7 C 6,7 C 0,6 C 85 % 0 lf 1012,2 hPa 0,0 l/m 2 min 0 min 290 W/m 22,5 km/h (4 Bft) 97,87 %
13.02.2018 10:18 1,7 C 8,3 C 0,6 C 85 % 0 lf 1012,1 hPa 0,0 l/m 2 min 0 min 293 W/m 13,5 km/h (3 Bft) 97,83 %
13.02.2018 10:20 1,8 C 7,8 C 0,6 C 85 % 0 lf 1012,1 hPa 0,0 l/m 2 min 0 min 297 W/m 13,5 km/h (3 Bft) 95,74 %
13.02.2018 10:22 1,9 C 8,9 C 0,6 C 85 % 0 lf 1012,1 hPa 0,0 l/m 2 min 0 min 301 W/m 11,3 km/h (2 Bft) 93,62 %
13.02.2018 10:24 2,0 C 9,4 C 0,6 C 85 % 0 lf 1012,2 hPa 0,0 l/m 2 min 0 min 304 W/m 13,5 km/h (3 Bft) 97,87 %
13.02.2018 10:26 2,1 C 8,3 C 0,6 C 84 % 0 lf 1012,2 hPa 0,0 l/m 2 min 0 min 307 W/m 15,8 km/h (3 Bft) 97,87 %
13.02.2018 10:28 2,2 C 7,2 C 0,6 C 84 % 0 lf 1012,1 hPa 0,0 l/m 2 min 0 min 311 W/m 18,0 km/h (3 Bft) 100,00 %
13.02.2018 10:30 2,2 C 7,2 C 0,6 C 84 % 0 lf 1012,1 hPa 0,0 l/m 2 min 0 min 315 W/m 18,0 km/h (3 Bft) 97,87 %
13.02.2018 10:32 2,3 C 7,2 C 0,6 C 83 % 0 lf 1012,1 hPa 0,0 l/m 2 min 0 min 318 W/m 18,0 km/h (3 Bft) 97,87 %
13.02.2018 10:34 2,4 C 7,8 C 0,6 C 83 % 0 lf 1012,1 hPa 0,0 l/m 2 min 0 min 322 W/m 18,0 km/h (3 Bft) 100,00 %
13.02.2018 10:36 2,4 C 7,2 C 0,6 C 83 % 0 lf 1012,1 hPa 0,0 l/m 2 min 0 min 326 W/m 18,0 km/h (3 Bft) 100,00 %
13.02.2018 10:38 2,5 C 7,2 C 0,6 C 82 % 0 lf 1012,1 hPa 0,0 l/m 2 min 0 min 330 W/m 20,3 km/h (4 Bft) 100,00 %
13.02.2018 10:40 2,5 C 8,3 C 0,6 C 82 % 0 lf 1012,1 hPa 0,0 l/m 2 min 0 min 333 W/m 15,8 km/h (3 Bft) 100,00 %
13.02.2018 10:42 2,6 C 7,8 C 0,6 C 82 % 0 lf 1012,1 hPa 0,0 l/m 2 min 0 min 337 W/m 20,3 km/h (4 Bft) 97,83 %
13.02.2018 10:44 2,6 C 8,9 C 0,6 C 81 % 0 lf 1012,1 hPa 0,0 l/m 2 min 0 min 339 W/m 15,8 km/h (3 Bft) 100,00 %
13.02.2018 10:46 2,7 C 8,9 C 0,6 C 81 % 0 lf 1012,1 hPa 0,0 l/m 2 min 0 min 342 W/m 20,3 km/h (4 Bft) 100,00 %
13.02.2018 10:48 2,7 C 8,9 C 0,6 C 81 % 0 lf 1012,1 hPa 0,0 l/m 2 min 0 min 346 W/m 20,3 km/h (4 Bft) 100,00 %
13.02.2018 10:50 2,8 C 8,3 C 1,1 C 81 % 0 lf 1012,1 hPa 0,0 l/m 2 min 0 min 348 W/m 22,5 km/h (4 Bft) 100,00 %
13.02.2018 10:52 2,8 C 8,3 C 1,1 C 81 % 0 lf 1012,0 hPa 0,0 l/m 2 min 0 min 352 W/m 18,0 km/h (3 Bft) 100,00 %
13.02.2018 10:54 2,9 C 8,3 C 1,1 C 81 % 0 lf 1012,1 hPa 0,0 l/m 2 min 0 min 354 W/m 22,5 km/h (4 Bft) 97,87 %
13.02.2018 10:56 2,9 C 7,8 C 1,1 C 80 % 0 lf 1012,1 hPa 0,0 l/m 2 min 0 min 357 W/m 24,8 km/h (4 Bft) 97,87 %
13.02.2018 10:58 3,0 C 7,2 C 1,1 C 80 % 0 lf 1012,1 hPa 0,0 l/m 2 min 0 min 359 W/m 27,0 km/h (4 Bft) 97,87 %
13.02.2018 11:00 3,0 C 7,2 C 1,1 C 79 % 0 lf 1012,1 hPa 0,0 l/m 2 min 0 min 363 W/m 20,3 km/h (4 Bft) 97,87 %
13.02.2018 11:02 3,0 C 6,7 C 1,1 C 79 % 0 lf 1012,0 hPa 0,0 l/m 2 min 0 min 366 W/m 27,0 km/h (4 Bft) 93,62 %
13.02.2018 11:04 3,1 C 7,8 C 1,1 C 79 % 0 lf 1012,0 hPa 0,0 l/m 2 min 0 min 367 W/m 18,0 km/h (3 Bft) 97,83 %
13.02.2018 11:06 3,1 C 8,9 C 1,1 C 79 % 0 lf 1012,0 hPa 0,0 l/m 2 min 0 min 372 W/m 20,3 km/h (4 Bft) 95,74 %
13.02.2018 11:08 3,2 C 8,9 C 1,1 C 79 % 0 lf 1012,0 hPa 0,0 l/m 2 min 0 min 374 W/m 15,8 km/h (3 Bft) 97,87 %
13.02.2018 11:10 3,2 C 8,3 C 1,1 C 79 % 0 lf 1012,0 hPa 0,0 l/m 2 min 0 min 377 W/m 27,0 km/h (4 Bft) 95,74 %
13.02.2018 11:12 3,2 C 8,9 C 1,1 C 79 % 0 lf 1011,9 hPa 0,0 l/m 2 min 0 min 380 W/m 18,0 km/h (3 Bft) 95,74 %
13.02.2018 11:14 3,3 C 7,8 C 1,1 C 79 % 0 lf 1011,9 hPa 0,0 l/m 2 min 0 min 382 W/m 22,5 km/h (4 Bft) 95,74 %
13.02.2018 11:16 3,3 C 8,3 C 1,1 C 79 % 0 lf 1011,8 hPa 0,0 l/m 2 min 0 min 385 W/m 22,5 km/h (4 Bft) 97,83 %
13.02.2018 11:18 3,4 C 9,4 C 1,1 C 79 % 0 lf 1011,8 hPa 0,0 l/m 2 min 0 min 388 W/m 20,3 km/h (4 Bft) 97,87 %
13.02.2018 11:20 3,4 C 9,4 C 1,7 C 79 % 0 lf 1011,8 hPa 0,0 l/m 2 min 0 min 390 W/m 24,8 km/h (4 Bft) 95,74 %
13.02.2018 11:22 3,5 C 9,4 C 1,7 C 78 % 0 lf 1011,9 hPa 0,0 l/m 2 min 0 min 393 W/m 15,8 km/h (3 Bft) 97,87 %
13.02.2018 11:24 3,6 C 10,0 C 1,7 C 78 % 0 lf 1011,8 hPa 0,0 l/m 2 min 0 min 395 W/m 18,0 km/h (3 Bft) 97,87 %
13.02.2018 11:26 3,6 C 9,4 C 1,7 C 78 % 0 lf 1011,8 hPa 0,0 l/m 2 min 0 min 397 W/m 18,0 km/h (3 Bft) 97,83 %
13.02.2018 11:28 3,7 C 9,4 C 1,7 C 78 % 0 lf 1011,8 hPa 0,0 l/m 2 min 0 min 399 W/m 20,3 km/h (4 Bft) 97,87 %
13.02.2018 11:30 3,8 C 10,0 C 1,7 C 78 % 0 lf 1011,7 hPa 0,0 l/m 2 min 0 min 402 W/m 20,3 km/h (4 Bft) 95,74 %
13.02.2018 11:32 3,8 C 10,0 C 1,7 C 78 % 0 lf 1011,7 hPa 0,0 l/m 2 min 0 min 403 W/m 22,5 km/h (4 Bft) 100,00 %
13.02.2018 11:34 3,9 C 10,6 C 1,7 C 77 % 0 lf 1011,6 hPa 0,0 l/m 2 min 0 min 404 W/m 24,8 km/h (4 Bft) 100,00 %
13.02.2018 11:36 3,9 C 10,0 C 1,7 C 77 % 0 lf 1011,8 hPa 0,0 l/m 2 min 0 min 407 W/m 22,5 km/h (4 Bft) 97,87 %
13.02.2018 11:38 4,0 C 10,0 C 1,7 C 77 % 0 lf 1011,7 hPa 0,0 l/m 2 min 0 min 410 W/m 27,0 km/h (4 Bft) 97,83 %
13.02.2018 11:40 4,1 C 9,4 C 1,7 C 76 % 0 lf 1011,8 hPa 0,0 l/m 2 min 0 min 411 W/m 33,8 km/h (5 Bft) 93,62 %
13.02.2018 11:42 4,1 C 8,9 C 1,7 C 76 % 0 lf 1011,7 hPa 0,0 l/m 2 min 0 min 413 W/m 24,8 km/h (4 Bft) 100,00 %
13.02.2018 11:44 4,1 C 9,4 C 1,7 C 76 % 0 lf 1011,8 hPa 0,0 l/m 2 min 0 min 414 W/m 22,5 km/h (4 Bft) 95,74 %
13.02.2018 11:46 4,1 C 8,9 C 2,2 C 75 % 0 lf 1011,8 hPa 0,0 l/m 2 min 0 min 416 W/m 29,3 km/h (5 Bft) 95,74 %
13.02.2018 11:48 4,1 C 8,9 C 2,2 C 75 % 0 lf 1011,7 hPa 0,0 l/m 2 min 0 min 417 W/m 22,5 km/h (4 Bft) 95,74 %
13.02.2018 11:50 4,1 C 9,4 C 2,8 C 75 % 0 lf 1011,6 hPa 0,0 l/m 2 min 0 min 419 W/m 27,0 km/h (4 Bft) 97,83 %
13.02.2018 11:52 4,1 C 9,4 C 2,8 C 75 % 0 lf 1011,7 hPa 0,0 l/m 2 min 0 min 422 W/m 29,3 km/h (5 Bft) 95,74 %
13.02.2018 11:54 4,2 C 8,9 C 2,8 C 75 % 0 lf 1011,6 hPa 0,0 l/m 2 min 0 min 423 W/m 24,8 km/h (4 Bft) 97,87 %
13.02.2018 11:56 4,2 C 8,3 C 2,8 C 75 % 0 lf 1011,6 hPa 0,0 l/m 2 min 0 min 424 W/m 29,3 km/h (5 Bft) 97,87 %
13.02.2018 11:58 4,2 C 9,4 C 3,3 C 75 % 0 lf 1011,6 hPa 0,0 l/m 2 min 0 min 423 W/m 36,0 km/h (5 Bft) 97,87 %
13.02.2018 12:00 4,2 C 9,4 C 3,3 C 75 % 0 lf 1011,6 hPa 0,0 l/m 2 min 0 min 425 W/m 27,0 km/h (4 Bft) 95,74 %
13.02.2018 12:02 4,2 C 8,9 C 3,3 C 75 % 0 lf 1011,6 hPa 0,0 l/m 2 min 0 min 426 W/m 33,8 km/h (5 Bft) 95,65 %
13.02.2018 12:04 4,2 C 8,3 C 2,8 C 74 % 0 lf 1011,7 hPa 0,0 l/m 2 min 0 min 425 W/m 29,3 km/h (5 Bft) 97,87 %
13.02.2018 12:08 4,2 C 8,3 C 2,8 C 74 % 0 lf 1011,7 hPa 0,0 l/m 4 min 0 min 427 W/m 31,5 km/h (5 Bft) 94,05 %
13.02.2018 12:10 4,2 C 9,4 C 2,8 C 74 % 0 lf 1011,6 hPa 0,0 l/m 2 min 0 min 429 W/m 29,3 km/h (5 Bft) 95,74 %
13.02.2018 12:12 4,2 C 8,9 C 2,8 C 74 % 0 lf 1011,6 hPa 0,0 l/m 2 min 0 min 430 W/m 33,8 km/h (5 Bft) 95,74 %
13.02.2018 12:14 4,3 C 8,3 C 2,8 C 74 % 0 lf 1011,6 hPa 0,0 l/m 2 min 0 min 431 W/m 33,8 km/h (5 Bft) 95,74 %
13.02.2018 12:16 4,3 C 8,3 C 2,8 C 74 % 0 lf 1011,5 hPa 0,0 l/m 2 min 0 min 432 W/m 40,6 km/h (6 Bft) 97,83 %
13.02.2018 12:18 4,3 C 8,3 C 2,8 C 74 % 0 lf 1011,4 hPa 0,0 l/m 2 min 0 min 433 W/m 29,3 km/h (5 Bft) 95,74 %
13.02.2018 12:20 4,3 C 8,9 C 2,8 C 74 % 0 lf 1011,4 hPa 0,0 l/m 2 min 0 min 432 W/m 27,0 km/h (4 Bft) 96,61 %
13.02.2018 12:22 4,3 C 8,9 C 2,8 C 74 % 0 lf 1011,4 hPa 0,0 l/m 2 min 0 min 434 W/m 24,8 km/h (4 Bft) 100,00 %
13.02.2018 12:24 4,4 C 8,9 C 2,8 C 74 % 0 lf 1011,4 hPa 0,0 l/m 2 min 0 min 435 W/m 31,5 km/h (5 Bft) 95,74 %
13.02.2018 12:26 4,4 C 9,4 C 2,8 C 74 % 0 lf 1011,3 hPa 0,0 l/m 2 min 0 min 435 W/m 29,3 km/h (5 Bft) 91,49 %
13.02.2018 12:28 4,5 C 8,3 C 2,8 C 74 % 0 lf 1011,3 hPa 0,0 l/m 2 min 0 min 434 W/m 27,0 km/h (4 Bft) 95,65 %
13.02.2018 12:30 4,5 C 8,3 C 3,3 C 73 % 0 lf 1011,4 hPa 0,0 l/m 2 min 0 min 435 W/m 33,8 km/h (5 Bft) 97,87 %
13.02.2018 12:32 4,5 C 8,3 C 2,8 C 73 % 0 lf 1011,2 hPa 0,0 l/m 2 min 0 min 435 W/m 27,0 km/h (4 Bft) 97,87 %
13.02.2018 12:34 4,5 C 8,9 C 3,3 C 73 % 0 lf 1011,1 hPa 0,0 l/m 2 min 0 min 436 W/m 22,5 km/h (4 Bft) 97,87 %
13.02.2018 12:36 4,6 C 9,4 C 3,3 C 74 % 0 lf 1011,1 hPa 0,0 l/m 2 min 0 min 437 W/m 33,8 km/h (5 Bft) 97,87 %
13.02.2018 12:38 4,6 C 9,4 C 3,3 C 73 % 0 lf 1011,2 hPa 0,0 l/m 2 min 0 min 437 W/m 36,0 km/h (5 Bft) 97,87 %
13.02.2018 12:40 4,7 C 8,9 C 3,3 C 73 % 0 lf 1011,2 hPa 0,0 l/m 2 min 0 min 437 W/m 31,5 km/h (5 Bft) 95,65 %
13.02.2018 12:42 4,7 C 9,4 C 3,3 C 72 % 0 lf 1011,2 hPa 0,0 l/m 2 min 0 min 438 W/m 29,3 km/h (5 Bft) 93,62 %
13.02.2018 12:44 4,7 C 9,4 C 3,3 C 72 % 0 lf 1011,1 hPa 0,0 l/m 2 min 0 min 438 W/m 29,3 km/h (5 Bft) 97,87 %
13.02.2018 12:46 4,8 C 8,9 C 3,3 C 72 % 0 lf 1011,2 hPa 0,0 l/m 2 min 0 min 437 W/m 31,5 km/h (5 Bft) 97,87 %
13.02.2018 12:48 4,8 C 8,9 C 3,3 C 72 % 0 lf 1011,2 hPa 0,0 l/m 2 min 0 min 437 W/m 33,8 km/h (5 Bft) 97,87 %
13.02.2018 12:50 4,8 C 10,0 C 3,3 C 72 % 0 lf 1011,1 hPa 0,0 l/m 2 min 0 min 438 W/m 20,3 km/h (4 Bft) 96,55 %
13.02.2018 12:52 4,9 C 10,0 C 3,9 C 73 % 0 lf 1011,0 hPa 0,0 l/m 2 min 0 min 438 W/m 31,5 km/h (5 Bft) 100,00 %
13.02.2018 12:54 4,9 C 8,9 C 3,9 C 72 % 0 lf 1011,0 hPa 0,0 l/m 2 min 0 min 435 W/m 36,0 km/h (5 Bft) 93,62 %
13.02.2018 12:56 4,9 C 9,4 C 3,9 C 71 % 0 lf 1011,1 hPa 0,0 l/m 2 min 0 min 434 W/m 36,0 km/h (5 Bft) 93,62 %
13.02.2018 12:58 4,9 C 8,9 C 3,9 C 71 % 0 lf 1011,1 hPa 0,0 l/m 2 min 0 min 436 W/m 38,3 km/h (5 Bft) 97,87 %
13.02.2018 13:00 5,0 C 9,4 C 3,9 C 71 % 0 lf 1011,1 hPa 0,0 l/m 2 min 0 min 433 W/m 36,0 km/h (5 Bft) 97,87 %
13.02.2018 13:02 5,0 C 10,0 C 3,9 C 71 % 0 lf 1011,0 hPa 0,0 l/m 2 min 0 min 432 W/m 29,3 km/h (5 Bft) 97,87 %
13.02.2018 13:04 5,1 C 10,0 C 3,9 C 71 % 0 lf 1011,0 hPa 0,0 l/m 2 min 0 min 434 W/m 27,0 km/h (4 Bft) 97,83 %
13.02.2018 13:06 5,1 C 10,0 C 3,9 C 70 % 0 lf 1011,0 hPa 0,0 l/m 2 min 0 min 435 W/m 27,0 km/h (4 Bft) 97,87 %
13.02.2018 13:08 5,1 C 9,4 C 3,9 C 70 % 0 lf 1011,0 hPa 0,0 l/m 2 min 0 min 434 W/m 31,5 km/h (5 Bft) 95,74 %
13.02.2018 13:10 5,2 C 9,4 C 3,9 C 70 % 0 lf 1011,0 hPa 0,0 l/m 2 min 0 min 433 W/m 31,5 km/h (5 Bft) 95,74 %
13.02.2018 13:12 5,2 C 9,4 C 3,9 C 70 % 0 lf 1010,9 hPa 0,0 l/m 2 min 0 min 433 W/m 38,3 km/h (5 Bft) 97,87 %
13.02.2018 13:14 5,2 C 10,0 C 3,9 C 70 % 0 lf 1010,8 hPa 0,0 l/m 2 min 0 min 432 W/m 22,5 km/h (4 Bft) 97,83 %
13.02.2018 13:16 5,3 C 10,6 C 3,9 C 70 % 0 lf 1010,8 hPa 0,0 l/m 2 min 0 min 432 W/m 24,8 km/h (4 Bft) 97,87 %
13.02.2018 13:18 5,3 C 11,1 C 3,9 C 70 % 0 lf 1010,8 hPa 0,0 l/m 2 min 0 min 432 W/m 22,5 km/h (4 Bft) 95,74 %
13.02.2018 13:20 5,4 C 10,6 C 3,9 C 70 % 0 lf 1010,7 hPa 0,0 l/m 2 min 0 min 431 W/m 29,3 km/h (5 Bft) 96,61 %
13.02.2018 13:22 5,4 C 11,7 C 3,9 C 70 % 0 lf 1010,8 hPa 0,0 l/m 2 min 0 min 429 W/m 22,5 km/h (4 Bft) 97,14 %
13.02.2018 13:24 5,5 C 11,7 C 3,9 C 69 % 0 lf 1010,8 hPa 0,0 l/m 2 min 0 min 428 W/m 29,3 km/h (5 Bft) 95,74 %
13.02.2018 13:26 5,6 C 12,2 C 3,9 C 69 % 0 lf 1010,7 hPa 0,0 l/m 2 min 0 min 427 W/m 27,0 km/h (4 Bft) 95,65 %
13.02.2018 13:28 5,7 C 11,7 C 3,9 C 69 % 0 lf 1010,7 hPa 0,0 l/m 2 min 0 min 425 W/m 20,3 km/h (4 Bft) 95,74 %
13.02.2018 13:30 5,7 C 10,6 C 3,9 C 68 % 0 lf 1010,7 hPa 0,0 l/m 2 min 0 min 422 W/m 36,0 km/h (5 Bft) 95,74 %
13.02.2018 13:32 5,7 C 10,0 C 3,9 C 68 % 0 lf 1010,7 hPa 0,0 l/m 2 min 0 min 421 W/m 27,0 km/h (4 Bft) 95,74 %
13.02.2018 13:34 5,7 C 9,4 C 3,9 C 67 % 0 lf 1010,6 hPa 0,0 l/m 2 min 0 min 420 W/m 24,8 km/h (4 Bft) 93,62 %
13.02.2018 13:36 5,7 C 10,6 C 3,9 C 67 % 0 lf 1010,6 hPa 0,0 l/m 2 min 0 min 415 W/m 20,3 km/h (4 Bft) 93,62 %
13.02.2018 13:38 5,7 C 10,0 C 3,9 C 67 % 0 lf 1010,5 hPa 0,0 l/m 2 min 0 min 416 W/m 29,3 km/h (5 Bft) 97,83 %
13.02.2018 13:40 5,7 C 10,0 C 3,9 C 67 % 0 lf 1010,5 hPa 0,0 l/m 2 min 0 min 414 W/m 27,0 km/h (4 Bft) 95,74 %
13.02.2018 13:42 5,7 C 10,6 C 3,9 C 67 % 0 lf 1010,5 hPa 0,0 l/m 2 min 0 min 412 W/m 22,5 km/h (4 Bft) 93,62 %
13.02.2018 13:44 5,7 C 9,4 C 3,9 C 67 % 0 lf 1010,5 hPa 0,0 l/m 2 min 0 min 410 W/m 36,0 km/h (5 Bft) 91,49 %
13.02.2018 13:46 5,7 C 9,4 C 3,9 C 67 % 0 lf 1010,5 hPa 0,0 l/m 2 min 0 min 407 W/m 31,5 km/h (5 Bft) 95,74 %
13.02.2018 13:48 5,7 C 10,0 C 3,9 C 67 % 0 lf 1010,4 hPa 0,0 l/m 2 min 0 min 406 W/m 22,5 km/h (4 Bft) 95,74 %
13.02.2018 13:50 5,7 C 10,6 C 3,9 C 67 % 0 lf 1010,4 hPa 0,0 l/m 2 min 0 min 404 W/m 29,3 km/h (5 Bft) 95,65 %
13.02.2018 13:52 5,7 C 10,6 C 3,9 C 67 % 0 lf 1010,4 hPa 0,0 l/m 2 min 0 min 403 W/m 24,8 km/h (4 Bft) 95,74 %
13.02.2018 13:54 5,7 C 9,4 C 3,9 C 67 % 0 lf 1010,4 hPa 0,0 l/m 2 min 0 min 404 W/m 40,6 km/h (6 Bft) 93,62 %
13.02.2018 13:56 5,7 C 9,4 C 3,9 C 67 % 0 lf 1010,3 hPa 0,0 l/m 2 min 0 min 400 W/m 36,0 km/h (5 Bft) 95,74 %
13.02.2018 13:58 5,7 C 9,4 C 3,9 C 66 % 0 lf 1010,2 hPa 0,0 l/m 2 min 0 min 400 W/m 22,5 km/h (4 Bft) 100,00 %
13.02.2018 14:00 5,7 C 9,4 C 3,9 C 66 % 0 lf 1010,3 hPa 0,0 l/m 2 min 0 min 399 W/m 29,3 km/h (5 Bft) 100,00 %
13.02.2018 14:02 5,7 C 9,4 C 3,9 C 67 % 0 lf 1010,3 hPa 0,0 l/m 2 min 0 min 398 W/m 27,0 km/h (4 Bft) 97,87 %
13.02.2018 14:04 5,7 C 10,0 C 3,9 C 66 % 0 lf 1010,2 hPa 0,0 l/m 2 min 0 min 395 W/m 27,0 km/h (4 Bft) 97,87 %
13.02.2018 14:06 5,7 C 10,0 C 3,9 C 66 % 0 lf 1010,3 hPa 0,0 l/m 2 min 0 min 394 W/m 31,5 km/h (5 Bft) 95,74 %
13.02.2018 14:08 5,7 C 10,0 C 3,9 C 66 % 0 lf 1010,2 hPa 0,0 l/m 2 min 0 min 389 W/m 31,5 km/h (5 Bft) 97,87 %
13.02.2018 14:10 5,7 C 9,4 C 3,9 C 67 % 0 lf 1010,2 hPa 0,0 l/m 2 min 0 min 385 W/m 29,3 km/h (5 Bft) 97,87 %
13.02.2018 14:12 5,7 C 10,0 C 3,9 C 67 % 0 lf 1010,1 hPa 0,0 l/m 2 min 0 min 381 W/m 29,3 km/h (5 Bft) 95,65 %
13.02.2018 14:14 5,7 C 9,4 C 3,9 C 66 % 0 lf 1010,1 hPa 0,0 l/m 2 min 0 min 380 W/m 29,3 km/h (5 Bft) 100,00 %
13.02.2018 14:16 5,7 C 10,6 C 3,9 C 66 % 0 lf 1010,1 hPa 0,0 l/m 2 min 0 min 378 W/m 27,0 km/h (4 Bft) 100,00 %
13.02.2018 14:18 5,7 C 10,0 C 3,9 C 66 % 0 lf 1010,0 hPa 0,0 l/m 2 min 0 min 377 W/m 38,3 km/h (5 Bft) 93,62 %
13.02.2018 14:20 5,7 C 9,4 C 3,9 C 66 % 0 lf 1010,0 hPa 0,0 l/m 2 min 0 min 377 W/m 36,0 km/h (5 Bft) 95,74 %
13.02.2018 14:22 5,7 C 9,4 C 3,9 C 66 % 0 lf 1009,9 hPa 0,0 l/m 2 min 0 min 371 W/m 38,3 km/h (5 Bft) 100,00 %
13.02.2018 14:24 5,7 C 9,4 C 3,9 C 66 % 0 lf 1009,9 hPa 0,0 l/m 2 min 0 min 369 W/m 36,0 km/h (5 Bft) 100,00 %
13.02.2018 14:26 5,7 C 9,4 C 3,9 C 66 % 0 lf 1009,9 hPa 0,0 l/m 2 min 0 min 366 W/m 24,8 km/h (4 Bft) 100,00 %
13.02.2018 14:28 5,7 C 8,9 C 3,9 C 66 % 0 lf 1009,9 hPa 0,0 l/m 2 min 0 min 363 W/m 29,3 km/h (5 Bft) 95,74 %
13.02.2018 14:30 5,6 C 7,8 C 3,9 C 66 % 0 lf 1009,9 hPa 0,0 l/m 2 min 0 min 246 W/m 24,8 km/h (4 Bft) 97,87 %
13.02.2018 14:32 5,6 C 8,9 C 3,9 C 67 % 0 lf 1009,9 hPa 0,0 l/m 0 min 0 min 117 W/m 33,8 km/h (5 Bft) 95,74 %
13.02.2018 14:34 5,7 C 9,4 C 3,9 C 67 % 0 lf 1009,9 hPa 0,0 l/m 2 min 0 min 372 W/m 27,0 km/h (4 Bft) 100,00 %
13.02.2018 14:36 5,7 C 9,4 C 3,9 C 66 % 0 lf 1009,8 hPa 0,0 l/m 2 min 0 min 377 W/m 22,5 km/h (4 Bft) 97,83 %
13.02.2018 14:38 5,6 C 9,4 C 4,4 C 66 % 0 lf 1009,9 hPa 0,0 l/m 2 min 0 min 365 W/m 31,5 km/h (5 Bft) 100,00 %
13.02.2018 14:40 5,6 C 8,9 C 3,9 C 65 % 0 lf 1009,9 hPa 0,0 l/m 2 min 0 min 366 W/m 27,0 km/h (4 Bft) 97,87 %
13.02.2018 14:42 5,6 C 8,3 C 3,9 C 65 % 0 lf 1009,8 hPa 0,0 l/m 2 min 0 min 354 W/m 36,0 km/h (5 Bft) 97,87 %
13.02.2018 14:44 5,6 C 9,4 C 4,4 C 65 % 0 lf 1009,8 hPa 0,0 l/m 2 min 0 min 323 W/m 31,5 km/h (5 Bft) 95,74 %
13.02.2018 14:46 5,6 C 7,8 C 3,9 C 64 % 0 lf 1009,8 hPa 0,0 l/m 2 min 0 min 351 W/m 31,5 km/h (5 Bft) 97,87 %
13.02.2018 14:48 5,6 C 7,2 C 3,9 C 64 % 0 lf 1009,8 hPa 0,0 l/m 0 min 0 min 150 W/m 27,0 km/h (4 Bft) 97,83 %
13.02.2018 14:50 5,6 C 6,7 C 3,9 C 65 % 0 lf 1009,8 hPa 0,0 l/m 0 min 0 min 139 W/m 31,5 km/h (5 Bft) 97,87 %
13.02.2018 14:52 5,5 C 6,1 C 3,3 C 65 % 0 lf 1009,7 hPa 0,0 l/m 0 min 0 min 97 W/m 24,8 km/h (4 Bft) 97,87 %
13.02.2018 14:54 5,5 C 6,1 C 3,3 C 65 % 0 lf 1009,7 hPa 0,0 l/m 0 min 0 min 114 W/m 27,0 km/h (4 Bft) 95,74 %
13.02.2018 14:56 5,4 C 6,7 C 3,9 C 64 % 0 lf 1009,6 hPa 0,0 l/m 0 min 0 min 183 W/m 24,8 km/h (4 Bft) 97,87 %
13.02.2018 14:58 5,4 C 7,8 C 3,9 C 65 % 0 lf 1009,7 hPa 0,0 l/m 2 min 0 min 204 W/m 33,8 km/h (5 Bft) 97,87 %
13.02.2018 15:00 5,3 C 8,3 C 5,0 C 65 % 0 lf 1009,6 hPa 0,0 l/m 2 min 0 min 317 W/m 22,5 km/h (4 Bft) 95,65 %
13.02.2018 15:02 5,4 C 9,4 C 5,6 C 66 % 0 lf 1009,6 hPa 0,0 l/m 2 min 0 min 316 W/m 33,8 km/h (5 Bft) 97,87 %
13.02.2018 15:04 5,4 C 8,9 C 6,1 C 65 % 0 lf 1009,6 hPa 0,0 l/m 2 min 0 min 305 W/m 24,8 km/h (4 Bft) 95,74 %
13.02.2018 15:06 5,4 C 8,9 C 6,1 C 65 % 0 lf 1009,5 hPa 0,0 l/m 2 min 0 min 301 W/m 45,1 km/h (6 Bft) 97,87 %
13.02.2018 15:08 5,4 C 8,9 C 5,0 C 64 % 0 lf 1009,5 hPa 0,0 l/m 2 min 0 min 301 W/m 38,3 km/h (5 Bft) 97,87 %
13.02.2018 15:10 5,4 C 8,9 C 5,0 C 64 % 0 lf 1009,5 hPa 0,0 l/m 2 min 0 min 299 W/m 38,3 km/h (5 Bft) 97,87 %
13.02.2018 15:12 5,5 C 9,4 C 5,0 C 64 % 0 lf 1009,4 hPa 0,0 l/m 2 min 0 min 287 W/m 20,3 km/h (4 Bft) 97,83 %
13.02.2018 15:14 5,5 C 9,4 C 4,4 C 64 % 0 lf 1009,5 hPa 0,0 l/m 2 min 0 min 265 W/m 36,0 km/h (5 Bft) 95,74 %
13.02.2018 15:16 5,6 C 8,3 C 4,4 C 63 % 0 lf 1009,4 hPa 0,0 l/m 2 min 0 min 274 W/m 36,0 km/h (5 Bft) 97,87 %
13.02.2018 15:18 5,5 C 8,3 C 3,9 C 63 % 0 lf 1009,4 hPa 0,0 l/m 2 min 0 min 263 W/m 36,0 km/h (5 Bft) 97,87 %
13.02.2018 15:20 5,6 C 8,9 C 3,9 C 64 % 0 lf 1009,4 hPa 0,0 l/m 2 min 0 min 262 W/m 27,0 km/h (4 Bft) 100,00 %
13.02.2018 15:22 5,5 C 8,3 C 3,9 C 63 % 0 lf 1009,4 hPa 0,0 l/m 2 min 0 min 260 W/m 33,8 km/h (5 Bft) 95,65 %
13.02.2018 15:24 5,5 C 8,3 C 3,9 C 63 % 0 lf 1009,4 hPa 0,0 l/m 2 min 0 min 255 W/m 27,0 km/h (4 Bft) 97,87 %
13.02.2018 15:26 5,5 C 8,3 C 3,9 C 62 % 0 lf 1009,4 hPa 0,0 l/m 2 min 0 min 249 W/m 33,8 km/h (5 Bft) 97,87 %
13.02.2018 15:28 5,4 C 7,8 C 3,9 C 63 % 0 lf 1009,4 hPa 0,0 l/m 2 min 0 min 244 W/m 31,5 km/h (5 Bft) 87,23 %
13.02.2018 15:30 5,4 C 7,8 C 3,9 C 62 % 0 lf 1009,4 hPa 0,0 l/m 2 min 0 min 238 W/m 33,8 km/h (5 Bft) 97,87 %
13.02.2018 15:32 5,4 C 7,8 C 3,9 C 63 % 0 lf 1009,4 hPa 0,0 l/m 2 min 0 min 233 W/m 38,3 km/h (5 Bft) 95,74 %
13.02.2018 15:34 5,3 C 7,8 C 3,9 C 62 % 0 lf 1009,4 hPa 0,0 l/m 2 min 0 min 227 W/m 33,8 km/h (5 Bft) 95,65 %
13.02.2018 15:36 5,3 C 7,8 C 3,3 C 62 % 0 lf 1009,4 hPa 0,0 l/m 2 min 0 min 220 W/m 36,0 km/h (5 Bft) 95,74 %
13.02.2018 15:38 5,3 C 7,8 C 3,3 C 62 % 0 lf 1009,4 hPa 0,0 l/m 2 min 0 min 216 W/m 49,6 km/h (6 Bft) 97,87 %
13.02.2018 15:40 5,3 C 7,8 C 3,3 C 62 % 0 lf 1009,4 hPa 0,0 l/m 2 min 0 min 212 W/m 29,3 km/h (5 Bft) 95,74 %
13.02.2018 15:42 5,3 C 8,3 C 3,3 C 63 % 0 lf 1009,3 hPa 0,0 l/m 2 min 0 min 210 W/m 27,0 km/h (4 Bft) 97,87 %
13.02.2018 15:44 5,2 C 8,9 C 3,3 C 63 % 0 lf 1009,2 hPa 0,0 l/m 2 min 0 min 204 W/m 45,1 km/h (6 Bft) 93,62 %
13.02.2018 15:46 5,2 C 7,8 C 3,3 C 63 % 0 lf 1009,3 hPa 0,0 l/m 2 min 0 min 199 W/m 38,3 km/h (5 Bft) 97,83 %
13.02.2018 15:48 5,2 C 8,3 C 3,3 C 63 % 0 lf 1009,3 hPa 0,0 l/m 2 min 0 min 192 W/m 29,3 km/h (5 Bft) 95,74 %
13.02.2018 15:50 5,2 C 8,3 C 3,3 C 63 % 0 lf 1009,3 hPa 0,0 l/m 2 min 0 min 188 W/m 27,0 km/h (4 Bft) 97,87 %
13.02.2018 15:52 5,2 C 8,3 C 3,3 C 63 % 0 lf 1009,2 hPa 0,0 l/m 2 min 0 min 182 W/m 31,5 km/h (5 Bft) 97,87 %
13.02.2018 15:54 5,2 C 7,8 C 3,3 C 63 % 0 lf 1009,2 hPa 0,0 l/m 2 min 0 min 176 W/m 31,5 km/h (5 Bft) 91,49 %
13.02.2018 15:56 5,2 C 7,2 C 3,3 C 62 % 0 lf 1009,2 hPa 0,0 l/m 2 min 0 min 171 W/m 33,8 km/h (5 Bft) 93,62 %
13.02.2018 15:58 5,2 C 6,7 C 3,3 C 62 % 0 lf 1009,2 hPa 0,0 l/m 2 min 0 min 165 W/m 36,0 km/h (5 Bft) 95,65 %
13.02.2018 16:00 5,1 C 6,1 C 3,3 C 62 % 0 lf 1009,2 hPa 0,0 l/m 2 min 0 min 159 W/m 29,3 km/h (5 Bft) 91,49 %
13.02.2018 16:02 5,1 C 6,1 C 3,3 C 62 % 0 lf 1009,2 hPa 0,0 l/m 2 min 0 min 156 W/m 22,5 km/h (4 Bft) 93,62 %
13.02.2018 16:04 5,1 C 6,1 C 3,3 C 62 % 0 lf 1009,2 hPa 0,0 l/m 2 min 0 min 152 W/m 38,3 km/h (5 Bft) 95,74 %
13.02.2018 16:06 5,1 C 6,1 C 3,3 C 62 % 0 lf 1009,2 hPa 0,0 l/m 2 min 0 min 146 W/m 29,3 km/h (5 Bft) 97,87 %
13.02.2018 16:08 5,0 C 5,6 C 3,3 C 62 % 0 lf 1009,2 hPa 0,0 l/m 2 min 0 min 141 W/m 27,0 km/h (4 Bft) 97,87 %
13.02.2018 16:10 5,0 C 5,6 C 3,3 C 62 % 0 lf 1009,2 hPa 0,0 l/m 2 min 0 min 136 W/m 24,8 km/h (4 Bft) 97,83 %
13.02.2018 16:12 5,0 C 5,0 C 2,8 C 62 % 0 lf 1009,2 hPa 0,0 l/m 2 min 0 min 130 W/m 31,5 km/h (5 Bft) 93,62 %
13.02.2018 16:14 4,9 C 5,0 C 2,8 C 63 % 0 lf 1009,2 hPa 0,0 l/m 2 min 0 min 125 W/m 29,3 km/h (5 Bft) 97,87 %
13.02.2018 16:16 4,9 C 5,0 C 2,8 C 63 % 0 lf 1009,1 hPa 0,0 l/m 2 min 0 min 122 W/m 22,5 km/h (4 Bft) 97,87 %
13.02.2018 16:18 4,9 C 5,0 C 2,8 C 63 % 0 lf 1009,2 hPa 0,0 l/m 2 min 0 min 115 W/m 31,5 km/h (5 Bft) 95,74 %
13.02.2018 16:20 4,8 C 5,0 C 2,8 C 62 % 0 lf 1009,2 hPa 0,0 l/m 2 min 0 min 110 W/m 40,6 km/h (6 Bft) 97,87 %
13.02.2018 16:22 4,8 C 5,0 C 2,8 C 62 % 0 lf 1009,2 hPa 0,0 l/m 2 min 0 min 105 W/m 33,8 km/h (5 Bft) 97,83 %
13.02.2018 16:24 4,8 C 5,0 C 2,8 C 62 % 0 lf 1009,2 hPa 0,0 l/m 0 min 0 min 100 W/m 24,8 km/h (4 Bft) 100,00 %
13.02.2018 16:26 4,7 C 5,0 C 2,8 C 63 % 0 lf 1009,2 hPa 0,0 l/m 0 min 0 min 97 W/m 31,5 km/h (5 Bft) 95,74 %
13.02.2018 16:28 4,7 C 5,0 C 2,8 C 63 % 0 lf 1009,2 hPa 0,0 l/m 0 min 0 min 91 W/m 31,5 km/h (5 Bft) 100,00 %
13.02.2018 16:30 4,7 C 5,0 C 2,8 C 64 % 0 lf 1009,1 hPa 0,0 l/m 0 min 0 min 86 W/m 31,5 km/h (5 Bft) 97,87 %
13.02.2018 16:32 4,7 C 4,4 C 2,8 C 63 % 0 lf 1009,1 hPa 0,0 l/m 0 min 0 min 83 W/m 29,3 km/h (5 Bft) 97,87 %
13.02.2018 16:34 4,7 C 4,4 C 2,8 C 64 % 0 lf 1009,2 hPa 0,0 l/m 0 min 0 min 78 W/m 18,0 km/h (3 Bft) 93,48 %
13.02.2018 16:36 4,6 C 4,4 C 2,2 C 64 % 0 lf 1009,1 hPa 0,0 l/m 0 min 0 min 74 W/m 24,8 km/h (4 Bft) 97,87 %
13.02.2018 16:38 4,6 C 4,4 C 2,8 C 63 % 0 lf 1009,2 hPa 0,0 l/m 0 min 0 min 70 W/m 27,0 km/h (4 Bft) 100,00 %
13.02.2018 16:40 4,6 C 4,4 C 2,2 C 64 % 0 lf 1009,2 hPa 0,0 l/m 0 min 0 min 67 W/m 20,3 km/h (4 Bft) 100,00 %
13.02.2018 16:42 4,6 C 4,4 C 2,2 C 64 % 0 lf 1009,2 hPa 0,0 l/m 0 min 0 min 62 W/m 22,5 km/h (4 Bft) 100,00 %
13.02.2018 16:44 4,6 C 4,4 C 2,2 C 64 % 0 lf 1009,2 hPa 0,0 l/m 0 min 0 min 60 W/m 27,0 km/h (4 Bft) 100,00 %
13.02.2018 16:46 4,5 C 4,4 C 2,2 C 64 % 0 lf 1009,2 hPa 0,0 l/m 0 min 0 min 55 W/m 22,5 km/h (4 Bft) 97,87 %
13.02.2018 16:48 4,5 C 4,4 C 2,2 C 64 % 0 lf 1009,2 hPa 0,0 l/m 0 min 0 min 51 W/m 15,8 km/h (3 Bft) 100,00 %
13.02.2018 16:50 4,5 C 4,4 C 2,2 C 65 % 0 lf 1009,2 hPa 0,0 l/m 0 min 0 min 47 W/m 13,5 km/h (3 Bft) 98,31 %
13.02.2018 16:52 4,4 C 4,4 C 2,2 C 65 % 0 lf 1009,2 hPa 0,0 l/m 0 min 0 min 43 W/m 18,0 km/h (3 Bft) 97,14 %
13.02.2018 16:54 4,4 C 4,4 C 2,2 C 65 % 0 lf 1009,2 hPa 0,0 l/m 0 min 0 min 39 W/m 29,3 km/h (5 Bft) 97,87 %
13.02.2018 16:56 4,4 C 4,4 C 2,2 C 65 % 0 lf 1009,2 hPa 0,0 l/m 0 min 0 min 37 W/m 20,3 km/h (4 Bft) 100,00 %
13.02.2018 16:58 4,4 C 4,4 C 2,2 C 65 % 0 lf 1009,2 hPa 0,0 l/m 0 min 0 min 33 W/m 29,3 km/h (5 Bft) 100,00 %
13.02.2018 17:00 4,3 C 4,4 C 2,2 C 64 % 0 lf 1009,2 hPa 0,0 l/m 0 min 0 min 32 W/m 18,0 km/h (3 Bft) 97,87 %
13.02.2018 17:02 4,3 C 3,9 C 2,2 C 64 % 0 lf 1009,3 hPa 0,0 l/m 0 min 0 min 30 W/m 22,5 km/h (4 Bft) 97,87 %
13.02.2018 17:04 4,3 C 3,9 C 2,2 C 64 % 0 lf 1009,2 hPa 0,0 l/m 0 min 0 min 28 W/m 29,3 km/h (5 Bft) 100,00 %
13.02.2018 17:06 4,3 C 3,9 C 2,2 C 64 % 0 lf 1009,3 hPa 0,0 l/m 0 min 0 min 27 W/m 29,3 km/h (5 Bft) 100,00 %
13.02.2018 17:08 4,2 C 3,9 C 1,7 C 64 % 0 lf 1009,3 hPa 0,0 l/m 0 min 0 min 26 W/m 20,3 km/h (4 Bft) 97,83 %
13.02.2018 17:10 4,2 C 3,9 C 1,7 C 64 % 0 lf 1009,2 hPa 0,0 l/m 0 min 0 min 25 W/m 18,0 km/h (3 Bft) 95,74 %
13.02.2018 17:12 4,2 C 3,9 C 1,7 C 64 % 0 lf 1009,3 hPa 0,0 l/m 0 min 0 min 25 W/m 13,5 km/h (3 Bft) 97,87 %
13.02.2018 17:14 4,2 C 3,9 C 1,7 C 65 % 0 lf 1009,3 hPa 0,0 l/m 0 min 0 min 23 W/m 27,0 km/h (4 Bft) 95,74 %
13.02.2018 17:16 4,1 C 3,9 C 1,7 C 65 % 0 lf 1009,3 hPa 0,0 l/m 0 min 0 min 22 W/m 24,8 km/h (4 Bft) 97,87 %
13.02.2018 17:18 4,1 C 3,9 C 1,7 C 65 % 0 lf 1009,3 hPa 0,0 l/m 0 min 0 min 20 W/m 15,8 km/h (3 Bft) 95,74 %
13.02.2018 17:20 4,1 C 3,9 C 1,7 C 65 % 0 lf 1009,2 hPa 0,0 l/m 0 min 0 min 19 W/m 20,3 km/h (4 Bft) 97,83 %
13.02.2018 17:22 4,1 C 3,9 C 1,7 C 65 % 0 lf 1009,3 hPa 0,0 l/m 0 min 0 min 17 W/m 24,8 km/h (4 Bft) 97,87 %
13.02.2018 17:24 4,0 C 3,9 C 1,7 C 65 % 0 lf 1009,3 hPa 0,0 l/m 0 min 0 min 16 W/m 20,3 km/h (4 Bft) 97,87 %
13.02.2018 17:26 3,9 C 3,3 C 1,1 C 65 % 0 lf 1009,2 hPa 0,0 l/m 0 min 0 min 16 W/m 18,0 km/h (3 Bft) 97,87 %
13.02.2018 17:28 3,9 C 3,3 C 1,1 C 65 % 0 lf 1009,3 hPa 0,0 l/m 0 min 0 min 15 W/m 18,0 km/h (3 Bft) 93,62 %
13.02.2018 17:30 3,9 C 3,3 C 1,1 C 65 % 0 lf 1009,3 hPa 0,0 l/m 0 min 0 min 13 W/m 15,8 km/h (3 Bft) 97,87 %
13.02.2018 17:32 3,9 C 3,3 C 1,1 C 65 % 0 lf 1009,3 hPa 0,0 l/m 0 min 0 min 12 W/m 9,0 km/h (2 Bft) 95,65 %
13.02.2018 17:34 3,8 C 3,3 C 0,6 C 65 % 0 lf 1009,3 hPa 0,0 l/m 0 min 0 min 11 W/m 13,5 km/h (3 Bft) 95,74 %
13.02.2018 17:36 3,8 C 3,3 C 0,6 C 66 % 0 lf 1009,3 hPa 0,0 l/m 0 min 0 min 11 W/m 13,5 km/h (3 Bft) 93,62 %
13.02.2018 17:38 3,8 C 2,8 C 0,6 C 66 % 0 lf 1009,3 hPa 0,0 l/m 0 min 0 min 9 W/m 13,5 km/h (3 Bft) 93,62 %
13.02.2018 17:40 3,7 C 2,8 C 0,6 C 66 % 0 lf 1009,3 hPa 0,0 l/m 0 min 0 min 8 W/m 11,3 km/h (2 Bft) 95,74 %
13.02.2018 17:42 3,7 C 2,8 C 0,6 C 66 % 0 lf 1009,3 hPa 0,0 l/m 0 min 0 min 7 W/m 18,0 km/h (3 Bft) 93,48 %
13.02.2018 17:44 3,7 C 2,8 C 0,6 C 66 % 0 lf 1009,3 hPa 0,0 l/m 0 min 0 min 6 W/m 20,3 km/h (4 Bft) 95,74 %
13.02.2018 17:46 3,6 C 2,8 C 0,6 C 66 % 0 lf 1009,3 hPa 0,0 l/m 0 min 0 min 5 W/m 20,3 km/h (4 Bft) 93,62 %
13.02.2018 17:48 3,6 C 2,8 C 0,0 C 67 % 0 lf 1009,3 hPa 0,0 l/m 0 min 0 min 5 W/m 22,5 km/h (4 Bft) 97,87 %
13.02.2018 17:50 3,5 C 2,8 C 0,6 C 67 % 0 lf 1009,4 hPa 0,0 l/m 0 min 0 min 2 W/m 15,8 km/h (3 Bft) 95,74 %
13.02.2018 17:52 3,4 C 2,8 C 0,6 C 67 % 0 lf 1009,3 hPa 0,0 l/m 0 min 0 min 0 W/m 22,5 km/h (4 Bft) 100,00 %
13.02.2018 17:54 3,4 C 2,8 C 0,6 C 68 % 0 lf 1009,4 hPa 0,0 l/m 0 min 0 min 0 W/m 20,3 km/h (4 Bft) 97,87 %
13.02.2018 17:56 3,3 C 2,8 C 0,6 C 68 % 0 lf 1009,4 hPa 0,0 l/m 0 min 0 min 0 W/m 13,5 km/h (3 Bft) 97,83 %
13.02.2018 17:58 3,3 C 2,8 C 0,6 C 68 % 0 lf 1009,4 hPa 0,0 l/m 0 min 0 min 0 W/m 18,0 km/h (3 Bft) 97,87 %
13.02.2018 18:00 3,2 C 2,8 C 0,0 C 68 % 0 lf 1009,4 hPa 0,0 l/m 0 min 0 min 0 W/m 20,3 km/h (4 Bft) 97,87 %
13.02.2018 18:02 3,2 C 2,2 C 0,0 C 68 % 0 lf 1009,4 hPa 0,0 l/m 0 min 0 min 0 W/m 15,8 km/h (3 Bft) 100,00 %
13.02.2018 18:04 3,1 C 2,2 C 0,0 C 69 % 0 lf 1009,4 hPa 0,0 l/m 0 min 0 min 0 W/m 13,5 km/h (3 Bft) 100,00 %
13.02.2018 18:06 3,1 C 2,2 C 0,0 C 69 % 0 lf 1009,4 hPa 0,0 l/m 0 min 0 min 0 W/m 15,8 km/h (3 Bft) 100,00 %
13.02.2018 18:08 3,0 C 1,7 C -0,6 C 69 % 0 lf 1009,4 hPa 0,0 l/m 0 min 0 min 0 W/m 20,3 km/h (4 Bft) 100,00 %
13.02.2018 18:10 2,9 C 1,7 C -0,6 C 69 % 0 lf 1009,4 hPa 0,0 l/m 0 min 0 min 0 W/m 18,0 km/h (3 Bft) 97,87 %
13.02.2018 18:12 2,9 C 1,7 C -0,6 C 69 % 0 lf 1009,4 hPa 0,0 l/m 0 min 0 min 0 W/m 18,0 km/h (3 Bft) 100,00 %
13.02.2018 18:14 2,9 C 1,7 C -0,6 C 70 % 0 lf 1009,5 hPa 0,0 l/m 0 min 0 min 0 W/m 15,8 km/h (3 Bft) 100,00 %
13.02.2018 18:16 2,8 C 2,2 C 0,0 C 70 % 0 lf 1009,5 hPa 0,0 l/m 0 min 0 min 0 W/m 11,3 km/h (2 Bft) 97,87 %
13.02.2018 18:18 2,7 C 2,2 C 0,0 C 70 % 0 lf 1009,6 hPa 0,0 l/m 0 min 0 min 0 W/m 13,5 km/h (3 Bft) 97,83 %
13.02.2018 18:20 2,7 C 2,2 C 0,0 C 70 % 0 lf 1009,6 hPa 0,0 l/m 0 min 0 min 0 W/m 15,8 km/h (3 Bft) 100,00 %
13.02.2018 18:22 2,7 C 1,7 C 0,0 C 70 % 0 lf 1009,6 hPa 0,0 l/m 0 min 0 min 0 W/m 13,5 km/h (3 Bft) 100,00 %
13.02.2018 18:24 2,6 C 1,7 C -0,6 C 70 % 0 lf 1009,6 hPa 0,0 l/m 0 min 0 min 0 W/m 15,8 km/h (3 Bft) 95,74 %
13.02.2018 18:26 2,6 C 1,7 C -0,6 C 70 % 0 lf 1009,6 hPa 0,0 l/m 0 min 0 min 0 W/m 13,5 km/h (3 Bft) 100,00 %
13.02.2018 18:28 2,6 C 1,7 C -0,6 C 70 % 0 lf 1009,7 hPa 0,0 l/m 0 min 0 min 0 W/m 13,5 km/h (3 Bft) 100,00 %
13.02.2018 18:30 2,5 C 1,7 C -0,6 C 70 % 0 lf 1009,6 hPa 0,0 l/m 0 min 0 min 0 W/m 18,0 km/h (3 Bft) 97,83 %
13.02.2018 18:32 2,4 C 1,7 C -0,6 C 71 % 0 lf 1009,6 hPa 0,0 l/m 0 min 0 min 0 W/m 13,5 km/h (3 Bft) 97,87 %
13.02.2018 18:34 2,4 C 1,7 C -0,6 C 71 % 0 lf 1009,6 hPa 0,0 l/m 0 min 0 min 0 W/m 20,3 km/h (4 Bft) 95,74 %
13.02.2018 18:36 2,4 C 1,7 C -0,6 C 71 % 0 lf 1009,7 hPa 0,0 l/m 0 min 0 min 0 W/m 15,8 km/h (3 Bft) 95,74 %
13.02.2018 18:38 2,3 C 1,7 C -0,6 C 71 % 0 lf 1009,7 hPa 0,0 l/m 0 min 0 min 0 W/m 13,5 km/h (3 Bft) 95,74 %
13.02.2018 18:40 2,3 C 1,7 C -0,6 C 71 % 0 lf 1009,7 hPa 0,0 l/m 0 min 0 min 0 W/m 18,0 km/h (3 Bft) 95,65 %
13.02.2018 18:42 2,3 C 1,7 C -0,6 C 71 % 0 lf 1009,7 hPa 0,0 l/m 0 min 0 min 0 W/m 20,3 km/h (4 Bft) 93,62 %
13.02.2018 18:44 2,2 C 1,7 C -0,6 C 71 % 0 lf 1009,7 hPa 0,0 l/m 0 min 0 min 0 W/m 13,5 km/h (3 Bft) 95,74 %
13.02.2018 18:46 2,2 C 1,7 C -0,6 C 71 % 0 lf 1009,7 hPa 0,0 l/m 0 min 0 min 0 W/m 15,8 km/h (3 Bft) 95,74 %
13.02.2018 18:48 2,2 C 1,7 C -0,6 C 71 % 0 lf 1009,7 hPa 0,0 l/m 0 min 0 min 0 W/m 15,8 km/h (3 Bft) 95,74 %
13.02.2018 18:50 2,1 C 1,7 C -0,6 C 71 % 0 lf 1009,7 hPa 0,0 l/m 0 min 0 min 0 W/m 15,8 km/h (3 Bft) 91,49 %
13.02.2018 18:52 2,1 C 1,7 C -0,6 C 71 % 0 lf 1009,8 hPa 0,0 l/m 0 min 0 min 0 W/m 15,8 km/h (3 Bft) 95,65 %
13.02.2018 18:54 2,1 C 1,1 C -1,1 C 71 % 0 lf 1009,8 hPa 0,0 l/m 0 min 0 min 0 W/m 13,5 km/h (3 Bft) 93,62 %
13.02.2018 18:56 2,1 C 1,1 C -0,6 C 71 % 0 lf 1009,8 hPa 0,0 l/m 0 min 0 min 0 W/m 13,5 km/h (3 Bft) 95,74 %
13.02.2018 18:58 2,0 C 1,7 C -0,6 C 71 % 0 lf 1009,7 hPa 0,0 l/m 0 min 0 min 0 W/m 13,5 km/h (3 Bft) 95,74 %
13.02.2018 19:00 2,0 C 1,1 C -1,1 C 71 % 0 lf 1009,8 hPa 0,0 l/m 0 min 0 min 0 W/m 13,5 km/h (3 Bft) 95,74 %
13.02.2018 19:02 1,9 C 1,1 C -1,1 C 71 % 0 lf 1009,8 hPa 0,0 l/m 0 min 0 min 0 W/m 9,0 km/h (2 Bft) 93,62 %
13.02.2018 19:04 1,9 C 1,1 C -1,1 C 71 % 0 lf 1009,8 hPa 0,0 l/m 0 min 0 min 0 W/m 15,8 km/h (3 Bft) 95,65 %
13.02.2018 19:06 1,9 C 1,7 C -1,1 C 71 % 0 lf 1009,8 hPa 0,0 l/m 0 min 0 min 0 W/m 13,5 km/h (3 Bft) 95,74 %
13.02.2018 19:08 1,9 C 1,7 C -0,6 C 71 % 0 lf 1009,9 hPa 0,0 l/m 0 min 0 min 0 W/m 13,5 km/h (3 Bft) 93,62 %
13.02.2018 19:10 1,8 C 1,7 C -0,6 C 72 % 0 lf 1009,8 hPa 0,0 l/m 0 min 0 min 0 W/m 13,5 km/h (3 Bft) 93,62 %
13.02.2018 19:12 1,8 C 1,7 C -0,6 C 72 % 0 lf 1009,8 hPa 0,0 l/m 0 min 0 min 0 W/m 11,3 km/h (2 Bft) 95,74 %
13.02.2018 19:14 1,8 C 1,7 C -0,6 C 72 % 0 lf 1009,9 hPa 0,0 l/m 0 min 0 min 0 W/m 11,3 km/h (2 Bft) 93,62 %
13.02.2018 19:16 1,8 C 1,1 C -0,6 C 72 % 0 lf 1009,9 hPa 0,0 l/m 0 min 0 min 0 W/m 11,3 km/h (2 Bft) 95,65 %
13.02.2018 19:18 1,8 C 1,1 C -1,1 C 72 % 0 lf 1009,8 hPa 0,0 l/m 0 min 0 min 0 W/m 18,0 km/h (3 Bft) 93,62 %
13.02.2018 19:20 1,7 C 1,1 C -1,1 C 72 % 0 lf 1009,8 hPa 0,0 l/m 0 min 0 min 0 W/m 13,5 km/h (3 Bft) 93,62 %
13.02.2018 19:22 1,7 C 1,1 C -1,1 C 72 % 0 lf 1009,8 hPa 0,0 l/m 0 min 0 min 0 W/m 11,3 km/h (2 Bft) 95,74 %
13.02.2018 19:24 1,7 C 1,1 C -1,1 C 72 % 0 lf 1009,8 hPa 0,0 l/m 0 min 0 min 0 W/m 11,3 km/h (2 Bft) 93,62 %
13.02.2018 19:26 1,7 C 1,1 C -1,1 C 72 % 0 lf 1009,8 hPa 0,0 l/m 0 min 0 min 0 W/m 11,3 km/h (2 Bft) 95,74 %
13.02.2018 19:28 1,6 C 1,1 C -1,7 C 72 % 0 lf 1009,8 hPa 0,0 l/m 0 min 0 min 0 W/m 9,0 km/h (2 Bft) 95,65 %
13.02.2018 19:30 1,6 C 1,1 C -1,1 C 72 % 0 lf 1009,8 hPa 0,0 l/m 0 min 0 min 0 W/m 13,5 km/h (3 Bft) 95,74 %
13.02.2018 19:32 1,6 C 1,1 C -1,7 C 72 % 0 lf 1009,8 hPa 0,0 l/m 0 min 0 min 0 W/m 13,5 km/h (3 Bft) 95,74 %
13.02.2018 19:34 1,6 C 0,6 C -1,7 C 72 % 0 lf 1009,8 hPa 0,0 l/m 0 min 0 min 0 W/m 13,5 km/h (3 Bft) 91,49 %
13.02.2018 19:36 1,5 C 1,1 C -1,7 C 72 % 0 lf 1009,8 hPa 0,0 l/m 0 min 0 min 0 W/m 9,0 km/h (2 Bft) 93,62 %
13.02.2018 19:38 1,5 C 1,1 C -1,7 C 73 % 0 lf 1009,8 hPa 0,0 l/m 0 min 0 min 0 W/m 13,5 km/h (3 Bft) 93,62 %
13.02.2018 19:40 1,4 C 1,1 C -1,7 C 73 % 0 lf 1009,8 hPa 0,0 l/m 0 min 0 min 0 W/m 11,3 km/h (2 Bft) 93,48 %
13.02.2018 19:42 1,4 C 1,1 C -1,7 C 73 % 0 lf 1009,9 hPa 0,0 l/m 0 min 0 min 0 W/m 11,3 km/h (2 Bft) 87,23 %
13.02.2018 19:44 1,4 C 0,6 C -1,7 C 73 % 0 lf 1009,9 hPa 0,0 l/m 0 min 0 min 0 W/m 15,8 km/h (3 Bft) 91,49 %
13.02.2018 19:46 1,4 C 0,6 C -1,7 C 73 % 0 lf 1009,9 hPa 0,0 l/m 0 min 0 min 0 W/m 15,8 km/h (3 Bft) 93,62 %
13.02.2018 19:48 1,3 C 0,6 C -1,7 C 73 % 0 lf 1009,9 hPa 0,0 l/m 0 min 0 min 0 W/m 15,8 km/h (3 Bft) 91,49 %
13.02.2018 19:50 1,3 C 0,6 C -1,7 C 73 % 0 lf 1009,9 hPa 0,0 l/m 0 min 0 min 0 W/m 11,3 km/h (2 Bft) 95,65 %
13.02.2018 19:52 1,3 C 0,6 C -1,7 C 73 % 0 lf 1009,9 hPa 0,0 l/m 0 min 0 min 0 W/m 22,5 km/h (4 Bft) 97,87 %
13.02.2018 19:54 1,3 C 1,1 C -1,1 C 73 % 0 lf 1009,9 hPa 0,0 l/m 0 min 0 min 0 W/m 18,0 km/h (3 Bft) 97,87 %
13.02.2018 19:56 1,3 C 1,1 C -1,1 C 74 % 0 lf 1009,9 hPa 0,0 l/m 0 min 0 min 0 W/m 13,5 km/h (3 Bft) 97,87 %
13.02.2018 19:58 1,2 C 1,1 C -1,1 C 74 % 0 lf 1009,9 hPa 0,0 l/m 0 min 0 min 0 W/m 15,8 km/h (3 Bft) 91,49 %
13.02.2018 20:00 1,2 C 1,1 C -1,1 C 74 % 0 lf 1010,0 hPa 0,0 l/m 0 min 0 min 0 W/m 15,8 km/h (3 Bft) 95,74 %
13.02.2018 20:02 1,2 C 1,1 C -1,1 C 74 % 0 lf 1009,9 hPa 0,0 l/m 0 min 0 min 0 W/m 22,5 km/h (4 Bft) 93,48 %
13.02.2018 20:04 1,2 C 1,1 C -1,1 C 74 % 0 lf 1009,9 hPa 0,0 l/m 0 min 0 min 0 W/m 18,0 km/h (3 Bft) 97,87 %
13.02.2018 20:06 1,2 C 1,1 C -1,1 C 74 % 0 lf 1009,9 hPa 0,0 l/m 0 min 0 min 0 W/m 18,0 km/h (3 Bft) 97,87 %
13.02.2018 20:08 1,2 C 1,1 C -1,1 C 74 % 0 lf 1009,9 hPa 0,0 l/m 0 min 0 min 0 W/m 15,8 km/h (3 Bft) 97,87 %
13.02.2018 20:10 1,2 C 1,1 C -1,1 C 74 % 0 lf 1009,9 hPa 0,0 l/m 0 min 0 min 0 W/m 20,3 km/h (4 Bft) 97,87 %
13.02.2018 20:12 1,2 C 1,1 C -1,1 C 74 % 0 lf 1009,9 hPa 0,0 l/m 0 min 0 min 0 W/m 20,3 km/h (4 Bft) 100,00 %
13.02.2018 20:14 1,2 C 1,1 C -0,6 C 74 % 0 lf 1009,9 hPa 0,0 l/m 0 min 0 min 0 W/m 22,5 km/h (4 Bft) 97,83 %
13.02.2018 20:16 1,2 C 1,1 C -0,6 C 74 % 0 lf 1009,9 hPa 0,0 l/m 0 min 0 min 0 W/m 20,3 km/h (4 Bft) 97,87 %
13.02.2018 20:18 1,2 C 1,1 C -0,6 C 74 % 0 lf 1009,9 hPa 0,0 l/m 0 min 0 min 0 W/m 33,8 km/h (5 Bft) 100,00 %
13.02.2018 20:20 1,3 C 1,1 C -0,6 C 74 % 0 lf 1010,0 hPa 0,0 l/m 0 min 0 min 0 W/m 20,3 km/h (4 Bft) 100,00 %
13.02.2018 20:22 1,3 C 1,1 C -0,6 C 74 % 0 lf 1010,0 hPa 0,0 l/m 0 min 0 min 0 W/m 22,5 km/h (4 Bft) 100,00 %
13.02.2018 20:24 1,3 C 1,1 C -0,6 C 74 % 0 lf 1010,0 hPa 0,0 l/m 0 min 0 min 0 W/m 24,8 km/h (4 Bft) 100,00 %
13.02.2018 20:26 1,3 C 1,1 C -0,6 C 74 % 0 lf 1009,9 hPa 0,0 l/m 0 min 0 min 0 W/m 20,3 km/h (4 Bft) 97,83 %
13.02.2018 20:28 1,3 C 1,1 C -0,6 C 74 % 0 lf 1010,0 hPa 0,0 l/m 0 min 0 min 0 W/m 24,8 km/h (4 Bft) 100,00 %
13.02.2018 20:30 1,3 C 1,1 C -1,1 C 74 % 0 lf 1010,0 hPa 0,0 l/m 0 min 0 min 0 W/m 22,5 km/h (4 Bft) 100,00 %
13.02.2018 20:32 1,3 C 1,1 C -0,6 C 74 % 0 lf 1010,0 hPa 0,0 l/m 0 min 0 min 0 W/m 18,0 km/h (3 Bft) 97,87 %
13.02.2018 20:34 1,3 C 1,1 C -0,6 C 74 % 0 lf 1010,0 hPa 0,0 l/m 0 min 0 min 0 W/m 18,0 km/h (3 Bft) 100,00 %
13.02.2018 20:36 1,3 C 1,1 C -1,1 C 74 % 0 lf 1010,1 hPa 0,0 l/m 0 min 0 min 0 W/m 22,5 km/h (4 Bft) 97,87 %
13.02.2018 20:38 1,3 C 1,1 C -0,6 C 73 % 0 lf 1010,1 hPa 0,0 l/m 0 min 0 min 0 W/m 20,3 km/h (4 Bft) 97,83 %
13.02.2018 20:40 1,3 C 1,1 C -1,1 C 73 % 0 lf 1010,1 hPa 0,0 l/m 0 min 0 min 0 W/m 18,0 km/h (3 Bft) 100,00 %
13.02.2018 20:42 1,3 C 1,1 C -1,1 C 73 % 0 lf 1010,2 hPa 0,0 l/m 0 min 0 min 0 W/m 20,3 km/h (4 Bft) 97,87 %
13.02.2018 20:44 1,3 C 1,1 C -1,1 C 73 % 0 lf 1010,2 hPa 0,0 l/m 0 min 0 min 0 W/m 20,3 km/h (4 Bft) 97,87 %
13.02.2018 20:46 1,3 C 1,1 C -1,1 C 73 % 0 lf 1010,2 hPa 0,0 l/m 0 min 0 min 0 W/m 13,5 km/h (3 Bft) 100,00 %
13.02.2018 20:48 1,3 C 1,1 C -1,1 C 73 % 0 lf 1010,2 hPa 0,0 l/m 0 min 0 min 0 W/m 18,0 km/h (3 Bft) 100,00 %
13.02.2018 20:50 1,3 C 1,1 C -1,1 C 73 % 0 lf 1010,2 hPa 0,0 l/m 0 min 0 min 0 W/m 18,0 km/h (3 Bft) 97,87 %
13.02.2018 20:52 1,3 C 1,1 C -1,1 C 73 % 0 lf 1010,2 hPa 0,0 l/m 0 min 0 min 0 W/m 27,0 km/h (4 Bft) 100,00 %
13.02.2018 20:54 1,3 C 1,1 C -1,1 C 73 % 0 lf 1010,3 hPa 0,0 l/m 0 min 0 min 0 W/m 13,5 km/h (3 Bft) 100,00 %
13.02.2018 20:56 1,3 C 1,1 C -1,1 C 73 % 0 lf 1010,2 hPa 0,0 l/m 0 min 0 min 0 W/m 15,8 km/h (3 Bft) 100,00 %
13.02.2018 20:58 1,2 C 1,1 C -1,1 C 73 % 0 lf 1010,2 hPa 0,0 l/m 0 min 0 min 0 W/m 18,0 km/h (3 Bft) 100,00 %
13.02.2018 21:00 1,2 C 1,1 C -1,1 C 73 % 0 lf 1010,2 hPa 0,0 l/m 0 min 0 min 0 W/m 15,8 km/h (3 Bft) 95,65 %
13.02.2018 21:02 1,2 C 1,1 C -1,1 C 73 % 0 lf 1010,2 hPa 0,0 l/m 0 min 0 min 0 W/m 18,0 km/h (3 Bft) 100,00 %
13.02.2018 21:04 1,2 C 1,1 C -1,1 C 73 % 0 lf 1010,3 hPa 0,0 l/m 0 min 0 min 0 W/m 11,3 km/h (2 Bft) 97,87 %
13.02.2018 21:06 1,2 C 0,6 C -1,1 C 73 % 0 lf 1010,2 hPa 0,0 l/m 0 min 0 min 0 W/m 20,3 km/h (4 Bft) 100,00 %
13.02.2018 21:08 1,2 C 0,6 C -1,1 C 73 % 0 lf 1010,2 hPa 0,0 l/m 0 min 0 min 0 W/m 18,0 km/h (3 Bft) 97,87 %
13.02.2018 21:10 1,1 C 0,6 C -1,1 C 73 % 0 lf 1010,1 hPa 0,0 l/m 0 min 0 min 0 W/m 20,3 km/h (4 Bft) 97,87 %
13.02.2018 21:12 1,1 C 0,6 C -1,1 C 73 % 0 lf 1010,2 hPa 0,0 l/m 0 min 0 min 0 W/m 18,0 km/h (3 Bft) 95,65 %
13.02.2018 21:14 1,1 C 0,6 C -1,7 C 73 % 0 lf 1010,2 hPa 0,0 l/m 0 min 0 min 0 W/m 20,3 km/h (4 Bft) 100,00 %
13.02.2018 21:16 1,1 C 0,6 C -1,1 C 73 % 0 lf 1010,2 hPa 0,0 l/m 0 min 0 min 0 W/m 13,5 km/h (3 Bft) 97,87 %
13.02.2018 21:18 1,1 C 0,6 C -1,1 C 73 % 0 lf 1010,2 hPa 0,0 l/m 0 min 0 min 0 W/m 18,0 km/h (3 Bft) 97,87 %
13.02.2018 21:20 1,0 C 0,6 C -1,7 C 73 % 0 lf 1010,3 hPa 0,0 l/m 0 min 0 min 0 W/m 20,3 km/h (4 Bft) 97,87 %
13.02.2018 21:22 1,0 C 0,6 C -1,1 C 73 % 0 lf 1010,3 hPa 0,0 l/m 0 min 0 min 0 W/m 18,0 km/h (3 Bft) 97,87 %
13.02.2018 21:24 1,0 C 0,6 C -1,7 C 73 % 0 lf 1010,4 hPa 0,0 l/m 0 min 0 min 0 W/m 13,5 km/h (3 Bft) 97,83 %
13.02.2018 21:26 0,9 C 0,6 C -1,7 C 74 % 0 lf 1010,4 hPa 0,0 l/m 0 min 0 min 0 W/m 20,3 km/h (4 Bft) 97,87 %
13.02.2018 21:28 0,9 C 0,6 C -1,7 C 74 % 0 lf 1010,3 hPa 0,0 l/m 0 min 0 min 0 W/m 13,5 km/h (3 Bft) 97,87 %
13.02.2018 21:30 0,9 C 0,6 C -1,1 C 74 % 0 lf 1010,4 hPa 0,0 l/m 0 min 0 min 0 W/m 18,0 km/h (3 Bft) 97,87 %
13.02.2018 21:32 0,9 C 0,6 C -1,1 C 74 % 0 lf 1010,4 hPa 0,0 l/m 0 min 0 min 0 W/m 15,8 km/h (3 Bft) 97,87 %
13.02.2018 21:34 0,9 C 0,6 C -1,7 C 74 % 0 lf 1010,4 hPa 0,0 l/m 0 min 0 min 0 W/m 13,5 km/h (3 Bft) 95,74 %
13.02.2018 21:36 0,9 C 0,6 C -1,7 C 74 % 0 lf 1010,4 hPa 0,0 l/m 0 min 0 min 0 W/m 13,5 km/h (3 Bft) 95,65 %
13.02.2018 21:38 0,9 C 0,6 C -1,7 C 74 % 0 lf 1010,5 hPa 0,0 l/m 0 min 0 min 0 W/m 13,5 km/h (3 Bft) 93,62 %
13.02.2018 21:40 0,9 C 0,6 C -1,1 C 74 % 0 lf 1010,4 hPa 0,0 l/m 0 min 0 min 0 W/m 15,8 km/h (3 Bft) 91,49 %
13.02.2018 21:42 0,8 C 0,6 C -1,7 C 74 % 0 lf 1010,5 hPa 0,0 l/m 0 min 0 min 0 W/m 18,0 km/h (3 Bft) 93,62 %
13.02.2018 21:44 0,8 C 0,6 C -1,7 C 74 % 0 lf 1010,5 hPa 0,0 l/m 0 min 0 min 0 W/m 13,5 km/h (3 Bft) 93,62 %
13.02.2018 21:46 0,8 C 0,6 C -1,7 C 74 % 0 lf 1010,5 hPa 0,0 l/m 0 min 0 min 0 W/m 20,3 km/h (4 Bft) 89,36 %
13.02.2018 21:48 0,8 C 0,6 C -1,7 C 74 % 0 lf 1010,5 hPa 0,0 l/m 0 min 0 min 0 W/m 13,5 km/h (3 Bft) 95,65 %
13.02.2018 21:50 0,8 C 0,6 C -1,7 C 74 % 0 lf 1010,5 hPa 0,0 l/m 0 min 0 min 0 W/m 18,0 km/h (3 Bft) 97,87 %
13.02.2018 21:52 0,8 C 0,6 C -1,7 C 74 % 0 lf 1010,5 hPa 0,0 l/m 0 min 0 min 0 W/m 13,5 km/h (3 Bft) 95,74 %
13.02.2018 21:54 0,8 C 0,6 C -1,7 C 74 % 0 lf 1010,6 hPa 0,0 l/m 0 min 0 min 0 W/m 11,3 km/h (2 Bft) 95,74 %
13.02.2018 21:56 0,8 C 0,6 C -1,7 C 74 % 0 lf 1010,6 hPa 0,0 l/m 0 min 0 min 0 W/m 13,5 km/h (3 Bft) 95,74 %
13.02.2018 21:58 0,8 C 0,6 C -1,7 C 74 % 0 lf 1010,6 hPa 0,0 l/m 0 min 0 min 0 W/m 11,3 km/h (2 Bft) 95,65 %
13.02.2018 22:00 0,7 C 0,6 C -1,7 C 74 % 0 lf 1010,7 hPa 0,0 l/m 0 min 0 min 0 W/m 13,5 km/h (3 Bft) 95,74 %
13.02.2018 22:02 0,7 C 0,6 C -1,7 C 74 % 0 lf 1010,8 hPa 0,0 l/m 0 min 0 min 0 W/m 15,8 km/h (3 Bft) 93,62 %
13.02.2018 22:04 0,7 C 0,6 C -1,7 C 74 % 0 lf 1010,7 hPa 0,0 l/m 0 min 0 min 0 W/m 9,0 km/h (2 Bft) 93,62 %
13.02.2018 22:06 0,7 C 0,0 C -1,7 C 74 % 0 lf 1010,7 hPa 0,0 l/m 0 min 0 min 0 W/m 9,0 km/h (2 Bft) 95,74 %
13.02.2018 22:08 0,7 C 0,0 C -1,7 C 74 % 0 lf 1010,7 hPa 0,0 l/m 0 min 0 min 0 W/m 15,8 km/h (3 Bft) 95,74 %
13.02.2018 22:10 0,6 C 0,6 C -1,7 C 74 % 0 lf 1010,7 hPa 0,0 l/m 0 min 0 min 0 W/m 13,5 km/h (3 Bft) 91,30 %
13.02.2018 22:12 0,6 C 0,0 C -1,7 C 74 % 0 lf 1010,7 hPa 0,0 l/m 0 min 0 min 0 W/m 13,5 km/h (3 Bft) 95,74 %
13.02.2018 22:14 0,6 C 0,0 C -1,7 C 74 % 0 lf 1010,7 hPa 0,0 l/m 0 min 0 min 0 W/m 13,5 km/h (3 Bft) 95,74 %
13.02.2018 22:16 0,6 C 0,0 C -1,7 C 75 % 0 lf 1010,7 hPa 0,0 l/m 0 min 0 min 0 W/m 11,3 km/h (2 Bft) 87,23 %
13.02.2018 22:18 0,5 C 0,0 C -1,7 C 75 % 0 lf 1010,8 hPa 0,0 l/m 0 min 0 min 0 W/m 13,5 km/h (3 Bft) 95,74 %
13.02.2018 22:20 0,5 C 0,0 C -1,7 C 75 % 0 lf 1010,8 hPa 0,0 l/m 0 min 0 min 0 W/m 13,5 km/h (3 Bft) 95,74 %
13.02.2018 22:22 0,5 C 0,0 C -1,7 C 75 % 0 lf 1010,8 hPa 0,0 l/m 0 min 0 min 0 W/m 9,0 km/h (2 Bft) 93,48 %
13.02.2018 22:24 0,5 C 0,0 C -1,7 C 75 % 0 lf 1010,9 hPa 0,0 l/m 0 min 0 min 0 W/m 13,5 km/h (3 Bft) 95,74 %
13.02.2018 22:26 0,5 C 0,0 C -2,2 C 75 % 0 lf 1010,9 hPa 0,0 l/m 0 min 0 min 0 W/m 13,5 km/h (3 Bft) 97,87 %
13.02.2018 22:28 0,5 C 0,0 C -2,2 C 75 % 0 lf 1010,9 hPa 0,0 l/m 0 min 0 min 0 W/m 15,8 km/h (3 Bft) 97,87 %
13.02.2018 22:30 0,5 C 0,0 C -2,2 C 75 % 0 lf 1010,9 hPa 0,0 l/m 0 min 0 min 0 W/m 9,0 km/h (2 Bft) 100,00 %
13.02.2018 22:32 0,5 C 0,0 C -2,2 C 75 % 0 lf 1010,9 hPa 0,0 l/m 0 min 0 min 0 W/m 13,5 km/h (3 Bft) 97,87 %
13.02.2018 22:34 0,4 C 0,0 C -2,2 C 75 % 0 lf 1010,9 hPa 0,0 l/m 0 min 0 min 0 W/m 11,3 km/h (2 Bft) 93,48 %
13.02.2018 22:36 0,4 C 0,0 C -2,2 C 75 % 0 lf 1010,8 hPa 0,0 l/m 0 min 0 min 0 W/m 13,5 km/h (3 Bft) 97,87 %
13.02.2018 22:38 0,4 C 0,0 C -2,2 C 76 % 0 lf 1010,9 hPa 0,0 l/m 0 min 0 min 0 W/m 15,8 km/h (3 Bft) 93,62 %
13.02.2018 22:40 0,3 C 0,0 C -2,2 C 76 % 0 lf 1010,9 hPa 0,0 l/m 0 min 0 min 0 W/m 11,3 km/h (2 Bft) 97,87 %
13.02.2018 22:42 0,3 C 0,0 C -2,2 C 76 % 0 lf 1010,9 hPa 0,0 l/m 0 min 0 min 0 W/m 11,3 km/h (2 Bft) 97,87 %
13.02.2018 22:44 0,3 C 0,0 C -2,2 C 76 % 0 lf 1010,9 hPa 0,0 l/m 0 min 0 min 0 W/m 13,5 km/h (3 Bft) 97,87 %
13.02.2018 22:46 0,3 C 0,0 C -2,2 C 76 % 0 lf 1010,9 hPa 0,0 l/m 0 min 0 min 0 W/m 13,5 km/h (3 Bft) 97,83 %
13.02.2018 22:48 0,2 C -0,6 C -2,8 C 76 % 0 lf 1010,9 hPa 0,0 l/m 0 min 0 min 0 W/m 15,8 km/h (3 Bft) 100,00 %
13.02.2018 22:50 0,2 C -0,6 C -2,8 C 76 % 0 lf 1010,8 hPa 0,0 l/m 0 min 0 min 0 W/m 11,3 km/h (2 Bft) 100,00 %
13.02.2018 22:52 0,2 C -0,6 C -2,8 C 76 % 0 lf 1010,9 hPa 0,0 l/m 0 min 0 min 0 W/m 13,5 km/h (3 Bft) 97,87 %
13.02.2018 22:54 0,2 C -0,6 C -2,8 C 76 % 0 lf 1010,9 hPa 0,0 l/m 0 min 0 min 0 W/m 11,3 km/h (2 Bft) 97,87 %
13.02.2018 22:56 0,1 C -0,6 C -2,8 C 76 % 0 lf 1010,8 hPa 0,0 l/m 0 min 0 min 0 W/m 15,8 km/h (3 Bft) 95,74 %
13.02.2018 22:58 0,1 C -0,6 C -2,8 C 76 % 0 lf 1010,9 hPa 0,0 l/m 0 min 0 min 0 W/m 15,8 km/h (3 Bft) 97,83 %
13.02.2018 23:00 0,1 C -0,6 C -2,8 C 76 % 0 lf 1010,9 hPa 0,0 l/m 0 min 0 min 0 W/m 11,3 km/h (2 Bft) 97,87 %
13.02.2018 23:02 0,1 C -1,1 C -2,8 C 76 % 0 lf 1010,8 hPa 0,0 l/m 0 min 0 min 0 W/m 9,0 km/h (2 Bft) 95,74 %
13.02.2018 23:04 0,0 C -1,1 C -2,8 C 76 % 0 lf 1010,8 hPa 0,0 l/m 0 min 0 min 0 W/m 13,5 km/h (3 Bft) 97,87 %
13.02.2018 23:06 0,0 C -1,1 C -3,3 C 76 % 0 lf 1010,8 hPa 0,0 l/m 0 min 0 min 0 W/m 9,0 km/h (2 Bft) 97,87 %
13.02.2018 23:08 -0,1 C -1,1 C -3,3 C 77 % 0 lf 1010,8 hPa 0,0 l/m 0 min 0 min 0 W/m 11,3 km/h (2 Bft) 93,48 %
13.02.2018 23:10 -0,1 C -1,1 C -3,3 C 76 % 0 lf 1010,8 hPa 0,0 l/m 0 min 0 min 0 W/m 15,8 km/h (3 Bft) 95,74 %
13.02.2018 23:12 -0,2 C -1,1 C -3,3 C 77 % 0 lf 1010,8 hPa 0,0 l/m 0 min 0 min 0 W/m 11,3 km/h (2 Bft) 95,74 %
13.02.2018 23:14 -0,2 C -1,1 C -3,3 C 77 % 0 lf 1010,9 hPa 0,0 l/m 0 min 0 min 0 W/m 9,0 km/h (2 Bft) 95,74 %
13.02.2018 23:16 -0,2 C -1,1 C -2,8 C 77 % 0 lf 1010,9 hPa 0,0 l/m 0 min 0 min 0 W/m 11,3 km/h (2 Bft) 95,74 %
13.02.2018 23:18 -0,3 C -1,1 C -2,8 C 77 % 0 lf 1010,9 hPa 0,0 l/m 0 min 0 min 0 W/m 9,0 km/h (2 Bft) 93,62 %
13.02.2018 23:20 -0,3 C -1,1 C -3,3 C 77 % 0 lf 1010,9 hPa 0,0 l/m 0 min 0 min 0 W/m 11,3 km/h (2 Bft) 93,48 %
13.02.2018 23:22 -0,3 C -1,1 C -3,3 C 77 % 0 lf 1010,9 hPa 0,0 l/m 0 min 0 min 0 W/m 13,5 km/h (3 Bft) 95,74 %
13.02.2018 23:24 -0,3 C -1,1 C -3,3 C 77 % 0 lf 1010,9 hPa 0,0 l/m 0 min 0 min 0 W/m 15,8 km/h (3 Bft) 93,62 %
13.02.2018 23:26 -0,3 C -1,1 C -3,3 C 77 % 0 lf 1010,9 hPa 0,0 l/m 0 min 0 min 0 W/m 9,0 km/h (2 Bft) 93,62 %
13.02.2018 23:28 -0,4 C -1,1 C -3,3 C 77 % 0 lf 1011,0 hPa 0,0 l/m 0 min 0 min 0 W/m 9,0 km/h (2 Bft) 95,74 %
13.02.2018 23:30 -0,4 C -1,1 C -3,3 C 77 % 0 lf 1011,0 hPa 0,0 l/m 0 min 0 min 0 W/m 11,3 km/h (2 Bft) 97,87 %
13.02.2018 23:32 -0,4 C -1,1 C -3,3 C 78 % 0 lf 1011,0 hPa 0,0 l/m 0 min 0 min 0 W/m 11,3 km/h (2 Bft) 95,65 %
13.02.2018 23:34 -0,5 C -1,1 C -3,3 C 78 % 0 lf 1011,0 hPa 0,0 l/m 0 min 0 min 0 W/m 9,0 km/h (2 Bft) 95,74 %
13.02.2018 23:36 -0,5 C -1,1 C -3,3 C 78 % 0 lf 1011,0 hPa 0,0 l/m 0 min 0 min 0 W/m 9,0 km/h (2 Bft) 93,62 %
13.02.2018 23:38 -0,6 C -1,1 C -3,3 C 78 % 0 lf 1011,0 hPa 0,0 l/m 0 min 0 min 0 W/m 11,3 km/h (2 Bft) 95,74 %
13.02.2018 23:40 -0,6 C -1,1 C -3,9 C 78 % 0 lf 1011,0 hPa 0,0 l/m 0 min 0 min 0 W/m 11,3 km/h (2 Bft) 91,49 %
13.02.2018 23:42 -0,6 C -1,1 C -3,9 C 78 % 0 lf 1011,0 hPa 0,0 l/m 0 min 0 min 0 W/m 9,0 km/h (2 Bft) 95,74 %
13.02.2018 23:44 -0,6 C -1,1 C -3,9 C 78 % 0 lf 1011,0 hPa 0,0 l/m 0 min 0 min 0 W/m 11,3 km/h (2 Bft) 95,65 %
13.02.2018 23:46 -0,6 C -1,1 C -3,3 C 78 % 0 lf 1011,0 hPa 0,0 l/m 0 min 0 min 0 W/m 9,0 km/h (2 Bft) 93,88 %
13.02.2018 23:48 -0,7 C -1,1 C -3,9 C 78 % 0 lf 1011,1 hPa 0,0 l/m 0 min 0 min 0 W/m 11,3 km/h (2 Bft) 95,74 %
13.02.2018 23:50 -0,7 C -1,1 C -3,3 C 78 % 0 lf 1011,1 hPa 0,0 l/m 0 min 0 min 0 W/m 11,3 km/h (2 Bft) 95,74 %
13.02.2018 23:52 -0,7 C -1,1 C -3,3 C 79 % 0 lf 1011,1 hPa 0,0 l/m 0 min 0 min 0 W/m 9,0 km/h (2 Bft) 97,87 %
13.02.2018 23:54 -0,7 C -1,1 C -3,3 C 78 % 0 lf 1011,1 hPa 0,0 l/m 0 min 0 min 0 W/m 6,8 km/h (2 Bft) 97,87 %
13.02.2018 23:56 -0,8 C -1,1 C -3,3 C 79 % 0 lf 1011,1 hPa 0,0 l/m 0 min 0 min 0 W/m 9,0 km/h (2 Bft) 95,65 %
13.02.2018 23:58 -0,8 C -1,1 C -3,9 C 79 % 0 lf 1011,2 hPa 0,0 l/m 0 min 0 min 0 W/m 11,3 km/h (2 Bft) 97,87 %
_ Min-Zeit 06:55 05:50 00:42 15:26 00:00 16:16 - - - - 00:24 05:40
Minimum _ -1,9 C -2,2 C -3,9 C 62 % 0 lf 1009,1 hPa - - - - 4,5 km/h (1 Bft) 86,84 %
_ Max-Zeit 13:28 13:26 15:04 06:35 00:00 00:18 00:00 12:08 00:00 12:42 15:38 00:24
Maximum _ 5,7 C 12,2 C 6,1 C 92 % 0 lf 1015,1 hPa 0,0 l/m 4 min 0 min 438 W/m 49,6 km/h
S (6 Bft)
100,00 %
Durchschnitt _ 1,3 C 2,2 C -0,8 C 79 % 0 lf 1011,7 hPa #0,0 l/m #7:30 h #0 min. 242 W/m 17,1 km/h (3 Bft) 96,81 %
© 2018 W. Hausmann